Wetterdaten: Donnerstag, 11.01.2018
Datum Zeit Temp. Aussen Temp. o. S. +5cm Feuchte Auss BlattFeu 1 Luftdruck Regen Sonnenschein Regendauer Solar Windben Empfang
11.01.2018 00:00 6,9 C 6,1 C 4,4 C 92 % 15 lf 1009,7 hPa 0,0 l/m 0 min 2 min 0 W/m 6,8 km/h (2 Bft) 95,74 %
11.01.2018 00:02 6,8 C 6,1 C 4,4 C 92 % 15 lf 1009,7 hPa 0,0 l/m 0 min 2 min 0 W/m 6,8 km/h (2 Bft) 97,67 %
11.01.2018 00:04 6,8 C 6,1 C 5,0 C 92 % 15 lf 1009,7 hPa 0,0 l/m 0 min 2 min 0 W/m 6,8 km/h (2 Bft) 95,74 %
11.01.2018 00:08 6,8 C 6,1 C 5,0 C 92 % 15 lf 1009,7 hPa 0,0 l/m 0 min 4 min 0 W/m 6,8 km/h (2 Bft) 97,62 %
11.01.2018 00:10 6,8 C 6,1 C 5,0 C 92 % 15 lf 1009,8 hPa 0,0 l/m 0 min 2 min 0 W/m 9,0 km/h (2 Bft) 93,62 %
11.01.2018 00:12 6,8 C 6,1 C 5,0 C 92 % 15 lf 1009,7 hPa 0,0 l/m 0 min 2 min 0 W/m 6,8 km/h (2 Bft) 93,48 %
11.01.2018 00:14 6,8 C 6,1 C 5,0 C 93 % 15 lf 1009,8 hPa 0,0 l/m 0 min 2 min 0 W/m 9,0 km/h (2 Bft) 95,74 %
11.01.2018 00:16 6,8 C 6,1 C 5,0 C 93 % 15 lf 1009,7 hPa 0,0 l/m 0 min 2 min 0 W/m 9,0 km/h (2 Bft) 97,87 %
11.01.2018 00:18 6,8 C 6,1 C 5,0 C 93 % 15 lf 1009,8 hPa 0,0 l/m 0 min 2 min 0 W/m 4,5 km/h (1 Bft) 97,87 %
11.01.2018 00:20 6,8 C 6,1 C 5,0 C 93 % 15 lf 1009,8 hPa 0,0 l/m 0 min 2 min 0 W/m 4,5 km/h (1 Bft) 98,28 %
11.01.2018 00:22 6,8 C 6,1 C 5,0 C 93 % 15 lf 1009,8 hPa 0,0 l/m 0 min 2 min 0 W/m 9,0 km/h (2 Bft) 100,00 %
11.01.2018 00:24 6,7 C 6,1 C 5,0 C 93 % 15 lf 1009,8 hPa 0,0 l/m 0 min 2 min 0 W/m 6,8 km/h (2 Bft) 97,87 %
11.01.2018 00:26 6,7 C 6,1 C 5,0 C 93 % 15 lf 1009,8 hPa 0,0 l/m 0 min 2 min 0 W/m 6,8 km/h (2 Bft) 100,00 %
11.01.2018 00:28 6,7 C 6,1 C 5,0 C 93 % 15 lf 1009,8 hPa 0,0 l/m 0 min 2 min 0 W/m 9,0 km/h (2 Bft) 97,87 %
11.01.2018 00:30 6,7 C 6,1 C 5,0 C 93 % 15 lf 1009,8 hPa 0,0 l/m 0 min 2 min 0 W/m 6,8 km/h (2 Bft) 97,87 %
11.01.2018 00:32 6,7 C 6,1 C 5,0 C 93 % 15 lf 1009,8 hPa 0,0 l/m 0 min 2 min 0 W/m 6,8 km/h (2 Bft) 100,00 %
11.01.2018 00:34 6,7 C 6,1 C 5,0 C 93 % 15 lf 1009,9 hPa 0,0 l/m 0 min 2 min 0 W/m 6,8 km/h (2 Bft) 100,00 %
11.01.2018 00:36 6,7 C 6,1 C 5,0 C 93 % 15 lf 1009,9 hPa 0,0 l/m 0 min 2 min 0 W/m 6,8 km/h (2 Bft) 100,00 %
11.01.2018 00:38 6,7 C 6,1 C 5,0 C 93 % 15 lf 1009,9 hPa 0,0 l/m 0 min 2 min 0 W/m 6,8 km/h (2 Bft) 100,00 %
11.01.2018 00:40 6,7 C 6,1 C 5,0 C 93 % 15 lf 1009,9 hPa 0,0 l/m 0 min 2 min 0 W/m 4,5 km/h (1 Bft) 100,00 %
11.01.2018 00:42 6,7 C 6,1 C 5,0 C 93 % 15 lf 1009,9 hPa 0,0 l/m 0 min 2 min 0 W/m 4,5 km/h (1 Bft) 97,87 %
11.01.2018 00:44 6,7 C 6,1 C 5,0 C 94 % 15 lf 1009,9 hPa 0,0 l/m 0 min 2 min 0 W/m 6,8 km/h (2 Bft) 97,87 %
11.01.2018 00:46 6,7 C 6,1 C 5,0 C 94 % 15 lf 1009,9 hPa 0,2 l/m 0 min 2 min 0 W/m 4,5 km/h (1 Bft) 93,48 %
11.01.2018 00:48 6,7 C 6,1 C 5,0 C 94 % 15 lf 1009,9 hPa 0,0 l/m 0 min 2 min 0 W/m 4,5 km/h (1 Bft) 100,00 %
11.01.2018 00:50 6,7 C 6,1 C 5,0 C 94 % 15 lf 1009,9 hPa 0,0 l/m 0 min 2 min 0 W/m 4,5 km/h (1 Bft) 98,31 %
11.01.2018 00:52 6,7 C 6,1 C 5,0 C 94 % 15 lf 1009,9 hPa 0,0 l/m 0 min 2 min 0 W/m 4,5 km/h (1 Bft) 100,00 %
11.01.2018 00:54 6,7 C 5,6 C 5,0 C 94 % 15 lf 1009,9 hPa 0,0 l/m 0 min 2 min 0 W/m 4,5 km/h (1 Bft) 97,87 %
11.01.2018 00:56 6,7 C 5,6 C 5,0 C 94 % 15 lf 1009,9 hPa 0,0 l/m 0 min 2 min 0 W/m 2,3 km/h (1 Bft) 97,87 %
11.01.2018 00:58 6,7 C 5,6 C 5,0 C 94 % 15 lf 1009,9 hPa 0,0 l/m 0 min 0 min 0 W/m 4,5 km/h (1 Bft) 97,83 %
11.01.2018 01:00 6,7 C 5,6 C 5,0 C 94 % 15 lf 1009,9 hPa 0,0 l/m 0 min 2 min 0 W/m 4,5 km/h (1 Bft) 97,87 %
11.01.2018 01:02 6,6 C 5,6 C 5,0 C 94 % 15 lf 1009,9 hPa 0,0 l/m 0 min 0 min 0 W/m 4,5 km/h (1 Bft) 97,87 %
11.01.2018 01:04 6,6 C 5,6 C 5,0 C 94 % 15 lf 1009,9 hPa 0,0 l/m 0 min 0 min 0 W/m 4,5 km/h (1 Bft) 97,87 %
11.01.2018 01:06 6,6 C 5,6 C 5,0 C 94 % 15 lf 1009,9 hPa 0,0 l/m 0 min 0 min 0 W/m 4,5 km/h (1 Bft) 97,87 %
11.01.2018 01:08 6,6 C 5,6 C 5,0 C 94 % 15 lf 1009,9 hPa 0,0 l/m 0 min 0 min 0 W/m 4,5 km/h (1 Bft) 100,00 %
11.01.2018 01:10 6,6 C 5,6 C 5,0 C 94 % 15 lf 1009,9 hPa 0,0 l/m 0 min 0 min 0 W/m 4,5 km/h (1 Bft) 97,83 %
11.01.2018 01:12 6,6 C 5,6 C 5,0 C 94 % 15 lf 1009,9 hPa 0,0 l/m 0 min 0 min 0 W/m 4,5 km/h (1 Bft) 95,74 %
11.01.2018 01:14 6,6 C 5,6 C 5,0 C 94 % 15 lf 1009,9 hPa 0,0 l/m 0 min 2 min 0 W/m 4,5 km/h (1 Bft) 95,74 %
11.01.2018 01:16 6,6 C 5,6 C 5,0 C 94 % 15 lf 1009,8 hPa 0,0 l/m 0 min 2 min 0 W/m 4,5 km/h (1 Bft) 95,74 %
11.01.2018 01:18 6,6 C 5,6 C 4,4 C 94 % 15 lf 1009,9 hPa 0,0 l/m 0 min 2 min 0 W/m 4,5 km/h (1 Bft) 93,62 %
11.01.2018 01:20 6,5 C 5,6 C 4,4 C 94 % 15 lf 1009,9 hPa 0,0 l/m 0 min 2 min 0 W/m 4,5 km/h (1 Bft) 91,38 %
11.01.2018 01:22 6,5 C 5,6 C 4,4 C 94 % 15 lf 1009,9 hPa 0,0 l/m 0 min 2 min 0 W/m 6,8 km/h (2 Bft) 97,14 %
11.01.2018 01:24 6,5 C 5,6 C 4,4 C 94 % 15 lf 1009,9 hPa 0,0 l/m 0 min 2 min 0 W/m 6,8 km/h (2 Bft) 93,62 %
11.01.2018 01:26 6,5 C 5,6 C 4,4 C 95 % 15 lf 1009,8 hPa 0,0 l/m 0 min 2 min 0 W/m 4,5 km/h (1 Bft) 95,74 %
11.01.2018 01:28 6,5 C 5,6 C 4,4 C 95 % 15 lf 1009,9 hPa 0,2 l/m 0 min 2 min 0 W/m 4,5 km/h (1 Bft) 97,87 %
11.01.2018 01:30 6,4 C 5,6 C 4,4 C 95 % 15 lf 1009,9 hPa 0,0 l/m 0 min 2 min 0 W/m 6,8 km/h (2 Bft) 97,87 %
11.01.2018 01:32 6,4 C 5,6 C 4,4 C 95 % 15 lf 1009,9 hPa 0,0 l/m 0 min 2 min 0 W/m 6,8 km/h (2 Bft) 95,65 %
11.01.2018 01:34 6,4 C 5,6 C 4,4 C 95 % 15 lf 1010,0 hPa 0,0 l/m 0 min 2 min 0 W/m 4,5 km/h (1 Bft) 95,74 %
11.01.2018 01:36 6,4 C 5,6 C 4,4 C 95 % 15 lf 1010,0 hPa 0,0 l/m 0 min 2 min 0 W/m 4,5 km/h (1 Bft) 97,87 %
11.01.2018 01:38 6,4 C 5,6 C 4,4 C 95 % 15 lf 1009,9 hPa 0,0 l/m 0 min 2 min 0 W/m 9,0 km/h (2 Bft) 93,62 %
11.01.2018 01:40 6,4 C 5,6 C 4,4 C 95 % 15 lf 1010,0 hPa 0,0 l/m 0 min 2 min 0 W/m 4,5 km/h (1 Bft) 95,74 %
11.01.2018 01:42 6,4 C 5,6 C 4,4 C 95 % 15 lf 1010,0 hPa 0,0 l/m 0 min 2 min 0 W/m 2,3 km/h (1 Bft) 95,74 %
11.01.2018 01:44 6,4 C 5,6 C 4,4 C 95 % 15 lf 1010,0 hPa 0,0 l/m 0 min 2 min 0 W/m 6,8 km/h (2 Bft) 97,87 %
11.01.2018 01:46 6,4 C 5,6 C 4,4 C 95 % 15 lf 1010,0 hPa 0,0 l/m 0 min 0 min 0 W/m 4,5 km/h (1 Bft) 97,83 %
11.01.2018 01:48 6,4 C 5,6 C 4,4 C 95 % 15 lf 1010,0 hPa 0,0 l/m 0 min 0 min 0 W/m 2,3 km/h (1 Bft) 97,87 %
11.01.2018 01:50 6,4 C 5,6 C 4,4 C 95 % 15 lf 1009,9 hPa 0,0 l/m 0 min 0 min 0 W/m 4,5 km/h (1 Bft) 96,61 %
11.01.2018 01:52 6,4 C 5,6 C 4,4 C 95 % 15 lf 1009,9 hPa 0,0 l/m 0 min 0 min 0 W/m 4,5 km/h (1 Bft) 100,00 %
11.01.2018 01:54 6,4 C 5,6 C 4,4 C 95 % 15 lf 1010,0 hPa 0,0 l/m 0 min 0 min 0 W/m 4,5 km/h (1 Bft) 91,49 %
11.01.2018 01:56 6,3 C 5,6 C 4,4 C 95 % 15 lf 1009,9 hPa 0,0 l/m 0 min 0 min 0 W/m 4,5 km/h (1 Bft) 97,83 %
11.01.2018 01:58 6,3 C 5,6 C 4,4 C 95 % 15 lf 1010,0 hPa 0,0 l/m 0 min 0 min 0 W/m 2,3 km/h (1 Bft) 97,87 %
11.01.2018 02:00 6,3 C 5,6 C 4,4 C 95 % 15 lf 1009,9 hPa 0,0 l/m 0 min 0 min 0 W/m 0,0 km/h (0 Bft) 97,87 %
11.01.2018 02:02 6,3 C 5,6 C 4,4 C 95 % 15 lf 1009,9 hPa 0,0 l/m 0 min 0 min 0 W/m 0,0 km/h (0 Bft) 97,87 %
11.01.2018 02:04 6,3 C 5,6 C 4,4 C 95 % 15 lf 1009,9 hPa 0,0 l/m 0 min 0 min 0 W/m 0,0 km/h (0 Bft) 100,00 %
11.01.2018 02:06 6,3 C 5,6 C 4,4 C 95 % 15 lf 1009,9 hPa 0,0 l/m 0 min 0 min 0 W/m 0,0 km/h (0 Bft) 100,00 %
11.01.2018 02:08 6,3 C 5,6 C 4,4 C 95 % 15 lf 1009,9 hPa 0,0 l/m 0 min 0 min 0 W/m 0,0 km/h (0 Bft) 95,65 %
11.01.2018 02:10 6,3 C 5,6 C 4,4 C 95 % 15 lf 1009,9 hPa 0,0 l/m 0 min 0 min 0 W/m 0,0 km/h (0 Bft) 97,87 %
11.01.2018 02:12 6,3 C 5,6 C 4,4 C 95 % 15 lf 1009,9 hPa 0,0 l/m 0 min 0 min 0 W/m 0,0 km/h (0 Bft) 95,74 %
11.01.2018 02:14 6,3 C 5,6 C 4,4 C 95 % 15 lf 1009,9 hPa 0,0 l/m 0 min 0 min 0 W/m 0,0 km/h (0 Bft) 100,00 %
11.01.2018 02:16 6,3 C 5,6 C 4,4 C 95 % 15 lf 1009,9 hPa 0,0 l/m 0 min 0 min 0 W/m 0,0 km/h (0 Bft) 93,62 %
11.01.2018 02:18 6,3 C 5,6 C 4,4 C 95 % 15 lf 1010,0 hPa 0,0 l/m 0 min 0 min 0 W/m 0,0 km/h (0 Bft) 97,87 %
11.01.2018 02:20 6,2 C 5,6 C 4,4 C 95 % 15 lf 1010,1 hPa 0,0 l/m 0 min 0 min 0 W/m 0,0 km/h (0 Bft) 96,55 %
11.01.2018 02:22 6,2 C 5,6 C 3,9 C 95 % 15 lf 1010,0 hPa 0,0 l/m 0 min 2 min 0 W/m 0,0 km/h (0 Bft) 97,14 %
11.01.2018 02:24 6,2 C 5,0 C 3,9 C 95 % 15 lf 1010,2 hPa 0,0 l/m 0 min 0 min 0 W/m 0,0 km/h (0 Bft) 93,62 %
11.01.2018 02:26 6,2 C 5,0 C 3,9 C 95 % 15 lf 1010,2 hPa 0,0 l/m 0 min 0 min 0 W/m 0,0 km/h (0 Bft) 97,87 %
11.01.2018 02:28 6,2 C 5,0 C 3,9 C 95 % 15 lf 1010,3 hPa 0,0 l/m 0 min 0 min 0 W/m 0,0 km/h (0 Bft) 97,87 %
11.01.2018 02:30 6,2 C 5,0 C 3,3 C 95 % 15 lf 1010,3 hPa 0,0 l/m 0 min 0 min 0 W/m 0,0 km/h (0 Bft) 95,74 %
11.01.2018 02:32 6,2 C 5,0 C 3,3 C 95 % 15 lf 1010,3 hPa 0,0 l/m 0 min 0 min 0 W/m 0,0 km/h (0 Bft) 95,65 %
11.01.2018 02:34 6,1 C 5,0 C 3,3 C 95 % 15 lf 1010,4 hPa 0,0 l/m 0 min 0 min 0 W/m 0,0 km/h (0 Bft) 97,87 %
11.01.2018 02:36 6,1 C 5,0 C 3,3 C 95 % 15 lf 1010,4 hPa 0,0 l/m 0 min 0 min 0 W/m 0,0 km/h (0 Bft) 95,74 %
11.01.2018 02:38 6,1 C 5,0 C 3,3 C 95 % 15 lf 1010,4 hPa 0,0 l/m 0 min 0 min 0 W/m 0,0 km/h (0 Bft) 97,87 %
11.01.2018 02:40 6,1 C 5,0 C 3,3 C 95 % 15 lf 1010,4 hPa 0,0 l/m 0 min 0 min 0 W/m 0,0 km/h (0 Bft) 95,74 %
11.01.2018 02:42 6,1 C 5,0 C 3,3 C 95 % 15 lf 1010,4 hPa 0,0 l/m 0 min 0 min 0 W/m 0,0 km/h (0 Bft) 95,65 %
11.01.2018 02:44 6,1 C 5,0 C 3,3 C 95 % 15 lf 1010,4 hPa 0,0 l/m 0 min 0 min 0 W/m 0,0 km/h (0 Bft) 93,62 %
11.01.2018 02:46 6,0 C 5,0 C 3,3 C 95 % 15 lf 1010,5 hPa 0,0 l/m 0 min 0 min 0 W/m 0,0 km/h (0 Bft) 91,49 %
11.01.2018 02:48 6,0 C 5,0 C 3,3 C 95 % 15 lf 1010,4 hPa 0,0 l/m 0 min 0 min 0 W/m 0,0 km/h (0 Bft) 91,49 %
11.01.2018 02:50 5,9 C 5,0 C 3,9 C 95 % 15 lf 1010,4 hPa 0,0 l/m 0 min 0 min 0 W/m 0,0 km/h (0 Bft) 93,22 %
11.01.2018 02:52 5,9 C 5,0 C 3,9 C 95 % 15 lf 1010,5 hPa 0,0 l/m 0 min 0 min 0 W/m 0,0 km/h (0 Bft) 91,43 %
11.01.2018 02:54 5,9 C 5,0 C 3,9 C 95 % 15 lf 1010,5 hPa 0,0 l/m 0 min 0 min 0 W/m 0,0 km/h (0 Bft) 91,49 %
11.01.2018 02:56 5,9 C 5,0 C 3,9 C 95 % 15 lf 1010,5 hPa 0,0 l/m 0 min 0 min 0 W/m 2,3 km/h (1 Bft) 93,48 %
11.01.2018 02:58 5,9 C 5,6 C 4,4 C 95 % 15 lf 1010,6 hPa 0,0 l/m 0 min 0 min 0 W/m 6,8 km/h (2 Bft) 95,74 %
11.01.2018 03:00 5,9 C 5,6 C 4,4 C 95 % 15 lf 1010,6 hPa 0,0 l/m 0 min 0 min 0 W/m 6,8 km/h (2 Bft) 95,74 %
11.01.2018 03:02 5,8 C 5,6 C 4,4 C 95 % 15 lf 1010,6 hPa 0,0 l/m 0 min 0 min 0 W/m 6,8 km/h (2 Bft) 93,62 %
11.01.2018 03:04 5,8 C 5,6 C 4,4 C 95 % 15 lf 1010,6 hPa 0,0 l/m 0 min 0 min 0 W/m 6,8 km/h (2 Bft) 93,62 %
11.01.2018 03:06 5,8 C 5,6 C 4,4 C 95 % 15 lf 1010,7 hPa 0,0 l/m 0 min 0 min 0 W/m 6,8 km/h (2 Bft) 95,65 %
11.01.2018 03:08 5,8 C 5,6 C 4,4 C 95 % 15 lf 1010,7 hPa 0,0 l/m 0 min 0 min 0 W/m 6,8 km/h (2 Bft) 95,74 %
11.01.2018 03:10 5,8 C 5,6 C 4,4 C 96 % 15 lf 1010,8 hPa 0,0 l/m 0 min 0 min 0 W/m 4,5 km/h (1 Bft) 97,87 %
11.01.2018 03:12 5,8 C 5,6 C 4,4 C 95 % 15 lf 1010,7 hPa 0,0 l/m 0 min 0 min 0 W/m 4,5 km/h (1 Bft) 93,62 %
11.01.2018 03:14 5,8 C 5,6 C 4,4 C 96 % 15 lf 1010,7 hPa 0,0 l/m 0 min 0 min 0 W/m 6,8 km/h (2 Bft) 97,87 %
11.01.2018 03:16 5,8 C 5,6 C 4,4 C 96 % 15 lf 1010,7 hPa 0,0 l/m 0 min 0 min 0 W/m 4,5 km/h (1 Bft) 95,74 %
11.01.2018 03:18 5,8 C 5,6 C 4,4 C 96 % 15 lf 1010,7 hPa 0,0 l/m 0 min 0 min 0 W/m 4,5 km/h (1 Bft) 97,83 %
11.01.2018 03:20 5,8 C 5,6 C 4,4 C 96 % 15 lf 1010,7 hPa 0,0 l/m 0 min 0 min 0 W/m 4,5 km/h (1 Bft) 96,61 %
11.01.2018 03:22 5,8 C 5,6 C 4,4 C 96 % 15 lf 1010,7 hPa 0,0 l/m 0 min 0 min 0 W/m 4,5 km/h (1 Bft) 94,29 %
11.01.2018 03:24 5,8 C 5,6 C 4,4 C 96 % 15 lf 1010,6 hPa 0,0 l/m 0 min 0 min 0 W/m 2,3 km/h (1 Bft) 97,87 %
11.01.2018 03:26 5,8 C 5,6 C 4,4 C 96 % 15 lf 1010,6 hPa 0,0 l/m 0 min 0 min 0 W/m 0,0 km/h (0 Bft) 95,74 %
11.01.2018 03:28 5,8 C 5,6 C 4,4 C 96 % 15 lf 1010,6 hPa 0,0 l/m 0 min 0 min 0 W/m 0,0 km/h (0 Bft) 97,87 %
11.01.2018 03:30 5,8 C 5,6 C 4,4 C 96 % 15 lf 1010,7 hPa 0,0 l/m 0 min 0 min 0 W/m 0,0 km/h (0 Bft) 97,83 %
11.01.2018 03:32 5,8 C 5,6 C 4,4 C 96 % 15 lf 1010,7 hPa 0,0 l/m 0 min 0 min 0 W/m 0,0 km/h (0 Bft) 97,87 %
11.01.2018 03:34 5,8 C 5,6 C 4,4 C 96 % 15 lf 1010,7 hPa 0,0 l/m 0 min 0 min 0 W/m 0,0 km/h (0 Bft) 95,74 %
11.01.2018 03:36 5,8 C 5,6 C 4,4 C 96 % 15 lf 1010,6 hPa 0,0 l/m 0 min 0 min 0 W/m 0,0 km/h (0 Bft) 93,62 %
11.01.2018 03:38 5,8 C 5,6 C 4,4 C 96 % 15 lf 1010,7 hPa 0,0 l/m 0 min 0 min 0 W/m 0,0 km/h (0 Bft) 97,87 %
11.01.2018 03:40 5,8 C 5,6 C 4,4 C 96 % 15 lf 1010,7 hPa 0,0 l/m 0 min 0 min 0 W/m 0,0 km/h (0 Bft) 97,87 %
11.01.2018 03:42 5,8 C 5,6 C 4,4 C 96 % 15 lf 1010,6 hPa 0,0 l/m 0 min 0 min 0 W/m 4,5 km/h (1 Bft) 95,65 %
11.01.2018 03:44 5,8 C 5,6 C 4,4 C 96 % 15 lf 1010,6 hPa 0,0 l/m 0 min 0 min 0 W/m 2,3 km/h (1 Bft) 97,87 %
11.01.2018 03:46 5,8 C 5,6 C 4,4 C 96 % 15 lf 1010,7 hPa 0,0 l/m 0 min 0 min 0 W/m 4,5 km/h (1 Bft) 97,87 %
11.01.2018 03:48 5,8 C 5,6 C 4,4 C 96 % 15 lf 1010,6 hPa 0,0 l/m 0 min 0 min 0 W/m 4,5 km/h (1 Bft) 97,87 %
11.01.2018 03:50 5,8 C 5,6 C 4,4 C 96 % 15 lf 1010,7 hPa 0,0 l/m 0 min 0 min 0 W/m 4,5 km/h (1 Bft) 98,28 %
11.01.2018 03:52 5,8 C 5,6 C 4,4 C 96 % 15 lf 1010,7 hPa 0,0 l/m 0 min 0 min 0 W/m 4,5 km/h (1 Bft) 94,29 %
11.01.2018 03:54 5,8 C 5,6 C 4,4 C 96 % 15 lf 1010,6 hPa 0,0 l/m 0 min 0 min 0 W/m 6,8 km/h (2 Bft) 100,00 %
11.01.2018 03:56 5,8 C 5,6 C 4,4 C 96 % 15 lf 1010,7 hPa 0,0 l/m 0 min 0 min 0 W/m 6,8 km/h (2 Bft) 100,00 %
11.01.2018 03:58 5,8 C 5,6 C 4,4 C 96 % 15 lf 1010,7 hPa 0,0 l/m 0 min 0 min 0 W/m 4,5 km/h (1 Bft) 97,87 %
11.01.2018 04:00 5,8 C 5,6 C 4,4 C 96 % 15 lf 1010,8 hPa 0,0 l/m 0 min 0 min 0 W/m 4,5 km/h (1 Bft) 100,00 %
11.01.2018 04:02 5,8 C 5,6 C 4,4 C 96 % 15 lf 1010,8 hPa 0,0 l/m 0 min 0 min 0 W/m 6,8 km/h (2 Bft) 100,00 %
11.01.2018 04:04 5,8 C 5,6 C 4,4 C 96 % 15 lf 1010,8 hPa 0,0 l/m 0 min 0 min 0 W/m 9,0 km/h (2 Bft) 93,62 %
11.01.2018 04:06 5,9 C 5,6 C 4,4 C 96 % 15 lf 1010,8 hPa 0,0 l/m 0 min 0 min 0 W/m 9,0 km/h (2 Bft) 97,83 %
11.01.2018 04:08 5,9 C 5,6 C 4,4 C 96 % 15 lf 1010,8 hPa 0,0 l/m 0 min 0 min 0 W/m 6,8 km/h (2 Bft) 95,74 %
11.01.2018 04:10 5,9 C 5,6 C 4,4 C 96 % 15 lf 1010,8 hPa 0,0 l/m 0 min 0 min 0 W/m 6,8 km/h (2 Bft) 97,87 %
11.01.2018 04:12 5,9 C 5,6 C 4,4 C 96 % 15 lf 1010,7 hPa 0,0 l/m 0 min 0 min 0 W/m 4,5 km/h (1 Bft) 97,87 %
11.01.2018 04:14 5,9 C 5,6 C 3,9 C 96 % 15 lf 1010,8 hPa 0,0 l/m 0 min 0 min 0 W/m 4,5 km/h (1 Bft) 95,74 %
11.01.2018 04:16 5,9 C 5,6 C 3,9 C 96 % 15 lf 1010,8 hPa 0,0 l/m 0 min 0 min 0 W/m 4,5 km/h (1 Bft) 97,83 %
11.01.2018 04:18 5,9 C 5,6 C 4,4 C 96 % 15 lf 1010,8 hPa 0,0 l/m 0 min 0 min 0 W/m 4,5 km/h (1 Bft) 93,62 %
11.01.2018 04:20 5,9 C 5,6 C 4,4 C 96 % 15 lf 1010,8 hPa 0,0 l/m 0 min 0 min 0 W/m 4,5 km/h (1 Bft) 96,61 %
11.01.2018 04:22 5,9 C 5,6 C 4,4 C 96 % 15 lf 1010,8 hPa 0,0 l/m 0 min 0 min 0 W/m 4,5 km/h (1 Bft) 94,29 %
11.01.2018 04:24 5,9 C 5,6 C 4,4 C 96 % 15 lf 1010,9 hPa 0,0 l/m 0 min 0 min 0 W/m 4,5 km/h (1 Bft) 97,87 %
11.01.2018 04:26 5,9 C 5,6 C 4,4 C 96 % 15 lf 1010,9 hPa 0,0 l/m 0 min 0 min 0 W/m 4,5 km/h (1 Bft) 97,87 %
11.01.2018 04:28 5,9 C 5,6 C 4,4 C 96 % 15 lf 1011,0 hPa 0,0 l/m 0 min 0 min 0 W/m 4,5 km/h (1 Bft) 93,48 %
11.01.2018 04:30 5,8 C 5,6 C 4,4 C 96 % 15 lf 1011,0 hPa 0,0 l/m 0 min 0 min 0 W/m 4,5 km/h (1 Bft) 93,62 %
11.01.2018 04:32 5,8 C 5,6 C 4,4 C 96 % 15 lf 1011,1 hPa 0,0 l/m 0 min 0 min 0 W/m 6,8 km/h (2 Bft) 97,87 %
11.01.2018 04:34 5,8 C 5,6 C 4,4 C 96 % 15 lf 1011,1 hPa 0,0 l/m 0 min 0 min 0 W/m 6,8 km/h (2 Bft) 95,74 %
11.01.2018 04:36 5,8 C 5,6 C 4,4 C 96 % 15 lf 1011,1 hPa 0,0 l/m 0 min 0 min 0 W/m 9,0 km/h (2 Bft) 93,62 %
11.01.2018 04:38 5,8 C 5,6 C 4,4 C 96 % 15 lf 1011,1 hPa 0,0 l/m 0 min 0 min 0 W/m 9,0 km/h (2 Bft) 93,62 %
11.01.2018 04:40 5,8 C 5,6 C 4,4 C 96 % 15 lf 1011,2 hPa 0,0 l/m 0 min 0 min 0 W/m 6,8 km/h (2 Bft) 95,65 %
11.01.2018 04:42 5,8 C 5,6 C 4,4 C 96 % 15 lf 1011,1 hPa 0,0 l/m 0 min 0 min 0 W/m 4,5 km/h (1 Bft) 95,74 %
11.01.2018 04:44 5,8 C 5,6 C 4,4 C 96 % 15 lf 1011,2 hPa 0,0 l/m 0 min 0 min 0 W/m 2,3 km/h (1 Bft) 93,62 %
11.01.2018 04:46 5,8 C 5,6 C 4,4 C 97 % 15 lf 1011,2 hPa 0,0 l/m 0 min 0 min 0 W/m 6,8 km/h (2 Bft) 89,36 %
11.01.2018 04:48 5,8 C 5,6 C 4,4 C 97 % 15 lf 1011,1 hPa 0,0 l/m 0 min 0 min 0 W/m 9,0 km/h (2 Bft) 93,62 %
11.01.2018 04:50 5,8 C 5,6 C 4,4 C 97 % 15 lf 1011,2 hPa 0,0 l/m 0 min 0 min 0 W/m 6,8 km/h (2 Bft) 96,55 %
11.01.2018 04:52 5,8 C 5,6 C 4,4 C 97 % 15 lf 1011,1 hPa 0,0 l/m 0 min 0 min 0 W/m 4,5 km/h (1 Bft) 91,43 %
11.01.2018 04:54 5,8 C 5,6 C 4,4 C 97 % 15 lf 1011,1 hPa 0,0 l/m 0 min 0 min 0 W/m 6,8 km/h (2 Bft) 93,62 %
11.01.2018 04:56 5,8 C 5,6 C 4,4 C 97 % 15 lf 1011,1 hPa 0,0 l/m 0 min 0 min 0 W/m 4,5 km/h (1 Bft) 93,62 %
11.01.2018 04:58 5,8 C 5,6 C 4,4 C 97 % 15 lf 1011,1 hPa 0,0 l/m 0 min 0 min 0 W/m 2,3 km/h (1 Bft) 93,62 %
11.01.2018 05:00 5,7 C 5,6 C 4,4 C 97 % 15 lf 1011,1 hPa 0,0 l/m 0 min 0 min 0 W/m 0,0 km/h (0 Bft) 95,74 %
11.01.2018 05:02 5,7 C 5,6 C 4,4 C 97 % 15 lf 1011,1 hPa 0,0 l/m 0 min 0 min 0 W/m 0,0 km/h (0 Bft) 89,36 %
11.01.2018 05:04 5,7 C 5,6 C 4,4 C 97 % 15 lf 1011,1 hPa 0,0 l/m 0 min 0 min 0 W/m 0,0 km/h (0 Bft) 95,65 %
11.01.2018 05:06 5,7 C 5,6 C 4,4 C 96 % 15 lf 1011,1 hPa 0,0 l/m 0 min 0 min 0 W/m 0,0 km/h (0 Bft) 95,74 %
11.01.2018 05:08 5,7 C 5,6 C 4,4 C 96 % 15 lf 1011,2 hPa 0,0 l/m 0 min 0 min 0 W/m 0,0 km/h (0 Bft) 95,74 %
11.01.2018 05:10 5,7 C 5,6 C 4,4 C 96 % 15 lf 1011,2 hPa 0,0 l/m 0 min 0 min 0 W/m 0,0 km/h (0 Bft) 97,87 %
11.01.2018 05:12 5,7 C 5,6 C 4,4 C 96 % 15 lf 1011,2 hPa 0,0 l/m 0 min 0 min 0 W/m 0,0 km/h (0 Bft) 97,87 %
11.01.2018 05:14 5,7 C 5,6 C 4,4 C 96 % 15 lf 1011,1 hPa 0,0 l/m 0 min 0 min 0 W/m 0,0 km/h (0 Bft) 95,65 %
11.01.2018 05:16 5,7 C 5,6 C 4,4 C 97 % 15 lf 1011,2 hPa 0,0 l/m 0 min 0 min 0 W/m 0,0 km/h (0 Bft) 97,87 %
11.01.2018 05:18 5,7 C 5,6 C 4,4 C 97 % 15 lf 1011,2 hPa 0,0 l/m 0 min 0 min 0 W/m 0,0 km/h (0 Bft) 97,87 %
11.01.2018 05:20 5,7 C 5,6 C 4,4 C 97 % 15 lf 1011,3 hPa 0,0 l/m 0 min 0 min 0 W/m 2,3 km/h (1 Bft) 98,31 %
11.01.2018 05:22 5,7 C 5,6 C 4,4 C 97 % 15 lf 1011,3 hPa 0,0 l/m 0 min 0 min 0 W/m 0,0 km/h (0 Bft) 94,29 %
11.01.2018 05:24 5,7 C 5,6 C 4,4 C 97 % 15 lf 1011,3 hPa 0,0 l/m 0 min 0 min 0 W/m 0,0 km/h (0 Bft) 97,87 %
11.01.2018 05:26 5,7 C 5,6 C 4,4 C 97 % 15 lf 1011,3 hPa 0,0 l/m 0 min 0 min 0 W/m 0,0 km/h (0 Bft) 97,83 %
11.01.2018 05:28 5,7 C 5,6 C 4,4 C 97 % 15 lf 1011,4 hPa 0,0 l/m 0 min 0 min 0 W/m 4,5 km/h (1 Bft) 97,87 %
11.01.2018 05:30 5,7 C 5,6 C 4,4 C 97 % 15 lf 1011,4 hPa 0,0 l/m 0 min 0 min 0 W/m 4,5 km/h (1 Bft) 95,74 %
11.01.2018 05:32 5,7 C 5,6 C 4,4 C 97 % 15 lf 1011,4 hPa 0,0 l/m 0 min 0 min 0 W/m 2,3 km/h (1 Bft) 97,87 %
11.01.2018 05:34 5,7 C 5,6 C 4,4 C 97 % 15 lf 1011,3 hPa 0,0 l/m 0 min 0 min 0 W/m 0,0 km/h (0 Bft) 97,87 %
11.01.2018 05:35 5,7 C 5,6 C 4,4 C 97 % 15 lf 1011,4 hPa 0,0 l/m 0 min 0 min 0 W/m 2,3 km/h (1 Bft) 100,00 %
11.01.2018 05:40 5,7 C 5,6 C 4,4 C 97 % 15 lf 1011,4 hPa 0,0 l/m 0 min 0 min 0 W/m 0,0 km/h (0 Bft) 100,00 %
11.01.2018 05:45 5,7 C 5,6 C 3,9 C 97 % 15 lf 1011,4 hPa 0,0 l/m 0 min 0 min 0 W/m 0,0 km/h (0 Bft) 100,00 %
11.01.2018 05:46 5,7 C 5,6 C 3,9 C 97 % 15 lf 1011,4 hPa 0,0 l/m 0 min 0 min 0 W/m 0,0 km/h (0 Bft) 100,00 %
11.01.2018 05:48 5,7 C 5,0 C 3,9 C 97 % 15 lf 1011,4 hPa 0,0 l/m 0 min 0 min 0 W/m 0,0 km/h (0 Bft) 97,92 %
11.01.2018 05:50 5,7 C 5,0 C 3,9 C 97 % 15 lf 1011,3 hPa 0,0 l/m 0 min 0 min 0 W/m 0,0 km/h (0 Bft) 97,87 %
11.01.2018 05:52 5,7 C 5,0 C 3,9 C 97 % 15 lf 1011,2 hPa 0,0 l/m 0 min 0 min 0 W/m 0,0 km/h (0 Bft) 97,87 %
11.01.2018 05:54 5,7 C 5,0 C 3,9 C 97 % 15 lf 1011,4 hPa 0,0 l/m 0 min 0 min 0 W/m 0,0 km/h (0 Bft) 100,00 %
11.01.2018 05:56 5,7 C 5,0 C 3,3 C 97 % 15 lf 1011,4 hPa 0,0 l/m 0 min 0 min 0 W/m 0,0 km/h (0 Bft) 97,92 %
11.01.2018 05:58 5,7 C 5,0 C 3,3 C 97 % 15 lf 1011,5 hPa 0,0 l/m 0 min 0 min 0 W/m 0,0 km/h (0 Bft) 95,83 %
11.01.2018 06:00 5,7 C 5,0 C 3,3 C 97 % 15 lf 1011,6 hPa 0,0 l/m 0 min 0 min 0 W/m 0,0 km/h (0 Bft) 100,00 %
11.01.2018 06:02 5,7 C 5,0 C 2,8 C 97 % 15 lf 1011,5 hPa 0,0 l/m 0 min 0 min 0 W/m 0,0 km/h (0 Bft) 97,87 %
11.01.2018 06:04 5,6 C 4,4 C 2,8 C 97 % 15 lf 1011,6 hPa 0,0 l/m 0 min 0 min 0 W/m 0,0 km/h (0 Bft) 100,00 %
11.01.2018 06:06 5,6 C 4,4 C 2,8 C 97 % 15 lf 1011,6 hPa 0,0 l/m 0 min 0 min 0 W/m 0,0 km/h (0 Bft) 100,00 %
11.01.2018 06:08 5,6 C 4,4 C 2,2 C 97 % 15 lf 1011,6 hPa 0,0 l/m 0 min 0 min 0 W/m 0,0 km/h (0 Bft) 97,62 %
11.01.2018 06:10 5,6 C 4,4 C 2,2 C 97 % 15 lf 1011,6 hPa 0,0 l/m 0 min 0 min 0 W/m 0,0 km/h (0 Bft) 97,83 %
11.01.2018 06:12 5,6 C 3,9 C 2,2 C 97 % 15 lf 1011,6 hPa 0,0 l/m 0 min 0 min 0 W/m 0,0 km/h (0 Bft) 97,87 %
11.01.2018 06:14 5,5 C 3,9 C 2,2 C 97 % 15 lf 1011,7 hPa 0,0 l/m 0 min 0 min 0 W/m 0,0 km/h (0 Bft) 100,00 %
11.01.2018 06:16 5,5 C 3,9 C 2,2 C 97 % 15 lf 1011,7 hPa 0,0 l/m 0 min 0 min 0 W/m 0,0 km/h (0 Bft) 97,87 %
11.01.2018 06:18 5,4 C 3,9 C 2,2 C 97 % 15 lf 1011,8 hPa 0,0 l/m 0 min 0 min 0 W/m 0,0 km/h (0 Bft) 97,87 %
11.01.2018 06:20 5,4 C 4,4 C 2,2 C 97 % 15 lf 1011,8 hPa 0,0 l/m 0 min 0 min 0 W/m 0,0 km/h (0 Bft) 100,00 %
11.01.2018 06:22 5,4 C 4,4 C 2,2 C 97 % 15 lf 1011,8 hPa 0,0 l/m 0 min 0 min 0 W/m 0,0 km/h (0 Bft) 100,00 %
11.01.2018 06:24 5,4 C 4,4 C 2,2 C 97 % 15 lf 1011,8 hPa 0,0 l/m 0 min 0 min 0 W/m 0,0 km/h (0 Bft) 97,92 %
11.01.2018 06:26 5,3 C 4,4 C 2,8 C 97 % 15 lf 1011,8 hPa 0,0 l/m 0 min 0 min 0 W/m 0,0 km/h (0 Bft) 97,92 %
11.01.2018 06:28 5,3 C 4,4 C 2,8 C 97 % 15 lf 1011,8 hPa 0,0 l/m 0 min 0 min 0 W/m 0,0 km/h (0 Bft) 97,87 %
11.01.2018 06:30 5,3 C 4,4 C 2,8 C 97 % 15 lf 1011,8 hPa 0,0 l/m 0 min 0 min 0 W/m 0,0 km/h (0 Bft) 97,87 %
11.01.2018 06:32 5,3 C 4,4 C 2,8 C 97 % 15 lf 1011,9 hPa 0,0 l/m 0 min 0 min 0 W/m 0,0 km/h (0 Bft) 95,74 %
11.01.2018 06:34 5,2 C 4,4 C 2,8 C 97 % 15 lf 1011,9 hPa 0,0 l/m 0 min 0 min 0 W/m 0,0 km/h (0 Bft) 97,92 %
11.01.2018 06:36 5,2 C 4,4 C 2,2 C 97 % 15 lf 1012,0 hPa 0,0 l/m 0 min 0 min 0 W/m 0,0 km/h (0 Bft) 97,87 %
11.01.2018 06:38 5,2 C 4,4 C 2,2 C 97 % 15 lf 1012,0 hPa 0,0 l/m 0 min 0 min 0 W/m 0,0 km/h (0 Bft) 95,74 %
11.01.2018 06:40 5,2 C 3,9 C 2,2 C 97 % 15 lf 1012,0 hPa 0,0 l/m 0 min 0 min 0 W/m 0,0 km/h (0 Bft) 91,49 %
11.01.2018 06:42 5,2 C 3,9 C 2,2 C 97 % 15 lf 1012,0 hPa 0,0 l/m 0 min 0 min 0 W/m 0,0 km/h (0 Bft) 95,74 %
11.01.2018 06:44 5,2 C 3,9 C 2,2 C 97 % 15 lf 1012,0 hPa 0,0 l/m 0 min 0 min 0 W/m 0,0 km/h (0 Bft) 97,87 %
11.01.2018 06:46 5,1 C 3,9 C 2,2 C 97 % 15 lf 1012,1 hPa 0,0 l/m 0 min 0 min 0 W/m 0,0 km/h (0 Bft) 95,65 %
11.01.2018 06:48 5,1 C 3,9 C 2,2 C 97 % 15 lf 1012,2 hPa 0,0 l/m 0 min 0 min 0 W/m 0,0 km/h (0 Bft) 95,74 %
11.01.2018 06:50 5,1 C 3,9 C 2,2 C 97 % 15 lf 1012,2 hPa 0,0 l/m 0 min 0 min 0 W/m 0,0 km/h (0 Bft) 96,61 %
11.01.2018 06:52 5,1 C 3,9 C 2,2 C 97 % 15 lf 1012,2 hPa 0,0 l/m 0 min 0 min 0 W/m 0,0 km/h (0 Bft) 94,29 %
11.01.2018 06:54 5,1 C 3,9 C 2,8 C 97 % 15 lf 1012,2 hPa 0,0 l/m 0 min 0 min 0 W/m 0,0 km/h (0 Bft) 91,49 %
11.01.2018 06:56 5,0 C 3,9 C 2,8 C 97 % 15 lf 1012,3 hPa 0,0 l/m 0 min 0 min 0 W/m 0,0 km/h (0 Bft) 95,74 %
11.01.2018 06:58 5,0 C 3,9 C 2,8 C 97 % 15 lf 1012,3 hPa 0,0 l/m 0 min 0 min 0 W/m 0,0 km/h (0 Bft) 93,48 %
11.01.2018 07:00 5,0 C 4,4 C 2,8 C 97 % 15 lf 1012,3 hPa 0,0 l/m 0 min 0 min 0 W/m 0,0 km/h (0 Bft) 97,73 %
11.01.2018 07:02 4,9 C 4,4 C 2,8 C 97 % 15 lf 1012,3 hPa 0,0 l/m 0 min 0 min 0 W/m 0,0 km/h (0 Bft) 98,00 %
11.01.2018 07:04 4,9 C 4,4 C 2,8 C 97 % 15 lf 1012,3 hPa 0,0 l/m 0 min 0 min 0 W/m 0,0 km/h (0 Bft) 93,62 %
11.01.2018 07:06 4,9 C 4,4 C 2,8 C 97 % 15 lf 1012,3 hPa 0,0 l/m 0 min 0 min 0 W/m 0,0 km/h (0 Bft) 87,23 %
11.01.2018 07:08 4,9 C 4,4 C 2,8 C 97 % 15 lf 1012,4 hPa 0,0 l/m 0 min 0 min 0 W/m 0,0 km/h (0 Bft) 95,74 %
11.01.2018 07:10 4,9 C 4,4 C 2,8 C 97 % 15 lf 1012,4 hPa 0,0 l/m 0 min 0 min 0 W/m 0,0 km/h (0 Bft) 95,65 %
11.01.2018 07:12 4,8 C 4,4 C 2,8 C 97 % 15 lf 1012,4 hPa 0,0 l/m 0 min 0 min 0 W/m 0,0 km/h (0 Bft) 93,62 %
11.01.2018 07:14 4,8 C 4,4 C 2,8 C 97 % 15 lf 1012,5 hPa 0,0 l/m 0 min 0 min 0 W/m 0,0 km/h (0 Bft) 93,62 %
11.01.2018 07:16 4,8 C 4,4 C 2,8 C 97 % 15 lf 1012,4 hPa 0,0 l/m 0 min 0 min 0 W/m 0,0 km/h (0 Bft) 95,74 %
11.01.2018 07:18 4,8 C 4,4 C 2,8 C 97 % 15 lf 1012,5 hPa 0,0 l/m 0 min 0 min 0 W/m 0,0 km/h (0 Bft) 95,74 %
11.01.2018 07:20 4,8 C 4,4 C 2,8 C 97 % 15 lf 1012,5 hPa 0,0 l/m 0 min 0 min 0 W/m 0,0 km/h (0 Bft) 94,83 %
11.01.2018 07:22 4,8 C 4,4 C 2,8 C 97 % 15 lf 1012,5 hPa 0,0 l/m 0 min 0 min 0 W/m 0,0 km/h (0 Bft) 94,87 %
11.01.2018 07:24 4,8 C 4,4 C 2,8 C 97 % 15 lf 1012,5 hPa 0,0 l/m 0 min 0 min 0 W/m 0,0 km/h (0 Bft) 95,74 %
11.01.2018 07:26 4,8 C 4,4 C 3,3 C 97 % 15 lf 1012,6 hPa 0,0 l/m 0 min 0 min 0 W/m 0,0 km/h (0 Bft) 93,62 %
11.01.2018 07:28 4,7 C 4,4 C 3,3 C 97 % 15 lf 1012,6 hPa 0,0 l/m 0 min 0 min 0 W/m 0,0 km/h (0 Bft) 95,74 %
11.01.2018 07:30 4,7 C 4,4 C 3,3 C 97 % 15 lf 1012,6 hPa 0,0 l/m 0 min 0 min 0 W/m 0,0 km/h (0 Bft) 93,62 %
11.01.2018 07:32 4,7 C 4,4 C 3,3 C 97 % 15 lf 1012,7 hPa 0,0 l/m 0 min 0 min 0 W/m 0,0 km/h (0 Bft) 93,48 %
11.01.2018 07:34 4,7 C 4,4 C 3,3 C 97 % 15 lf 1012,7 hPa 0,0 l/m 0 min 0 min 0 W/m 0,0 km/h (0 Bft) 91,49 %
11.01.2018 07:36 4,7 C 4,4 C 3,3 C 97 % 15 lf 1012,7 hPa 0,0 l/m 0 min 0 min 0 W/m 0,0 km/h (0 Bft) 93,75 %
11.01.2018 07:38 4,7 C 4,4 C 3,3 C 97 % 15 lf 1012,7 hPa 0,0 l/m 0 min 0 min 0 W/m 0,0 km/h (0 Bft) 91,49 %
11.01.2018 07:40 4,7 C 4,4 C 3,3 C 97 % 15 lf 1012,8 hPa 0,0 l/m 0 min 0 min 0 W/m 0,0 km/h (0 Bft) 93,62 %
11.01.2018 07:42 4,7 C 4,4 C 3,3 C 97 % 15 lf 1012,8 hPa 0,0 l/m 0 min 0 min 0 W/m 0,0 km/h (0 Bft) 93,62 %
11.01.2018 07:44 4,7 C 4,4 C 3,3 C 97 % 15 lf 1012,8 hPa 0,0 l/m 0 min 0 min 0 W/m 0,0 km/h (0 Bft) 93,48 %
11.01.2018 07:46 4,7 C 4,4 C 3,3 C 97 % 15 lf 1012,9 hPa 0,0 l/m 0 min 0 min 0 W/m 0,0 km/h (0 Bft) 93,62 %
11.01.2018 07:48 4,7 C 4,4 C 3,3 C 97 % 15 lf 1012,9 hPa 0,0 l/m 0 min 0 min 0 W/m 0,0 km/h (0 Bft) 93,62 %
11.01.2018 07:50 4,7 C 4,4 C 3,3 C 97 % 15 lf 1012,9 hPa 0,0 l/m 0 min 0 min 0 W/m 0,0 km/h (0 Bft) 91,49 %
11.01.2018 07:52 4,7 C 4,4 C 3,3 C 97 % 15 lf 1012,9 hPa 0,0 l/m 0 min 0 min 0 W/m 0,0 km/h (0 Bft) 95,74 %
11.01.2018 07:54 4,7 C 4,4 C 3,3 C 97 % 15 lf 1013,0 hPa 0,0 l/m 0 min 0 min 0 W/m 0,0 km/h (0 Bft) 97,83 %
11.01.2018 07:56 4,7 C 4,4 C 3,3 C 97 % 15 lf 1013,0 hPa 0,0 l/m 0 min 0 min 0 W/m 0,0 km/h (0 Bft) 97,62 %
11.01.2018 07:58 4,7 C 4,4 C 3,3 C 97 % 15 lf 1013,0 hPa 0,0 l/m 0 min 0 min 0 W/m 0,0 km/h (0 Bft) 97,87 %
11.01.2018 08:00 4,7 C 4,4 C 3,3 C 97 % 15 lf 1013,0 hPa 0,0 l/m 0 min 0 min 0 W/m 0,0 km/h (0 Bft) 94,00 %
11.01.2018 08:02 4,7 C 4,4 C 3,3 C 97 % 15 lf 1013,1 hPa 0,0 l/m 0 min 0 min 0 W/m 0,0 km/h (0 Bft) 95,92 %
11.01.2018 08:04 4,7 C 4,4 C 3,3 C 97 % 15 lf 1013,0 hPa 0,0 l/m 0 min 0 min 0 W/m 0,0 km/h (0 Bft) 97,87 %
11.01.2018 08:06 4,7 C 4,4 C 3,9 C 97 % 15 lf 1013,1 hPa 0,0 l/m 0 min 0 min 0 W/m 0,0 km/h (0 Bft) 97,87 %
11.01.2018 08:08 4,8 C 4,4 C 3,9 C 97 % 15 lf 1013,1 hPa 0,0 l/m 0 min 0 min 0 W/m 0,0 km/h (0 Bft) 97,87 %
11.01.2018 08:10 4,8 C 4,4 C 3,9 C 97 % 15 lf 1013,1 hPa 0,0 l/m 0 min 0 min 0 W/m 0,0 km/h (0 Bft) 95,74 %
11.01.2018 08:12 4,8 C 5,0 C 3,9 C 97 % 15 lf 1013,1 hPa 0,0 l/m 0 min 0 min 0 W/m 0,0 km/h (0 Bft) 95,74 %
11.01.2018 08:14 4,8 C 5,0 C 3,9 C 97 % 15 lf 1013,1 hPa 0,0 l/m 0 min 0 min 0 W/m 0,0 km/h (0 Bft) 97,87 %
11.01.2018 08:16 4,8 C 5,0 C 3,9 C 97 % 15 lf 1013,2 hPa 0,0 l/m 0 min 0 min 0 W/m 0,0 km/h (0 Bft) 97,87 %
11.01.2018 08:18 4,8 C 5,0 C 3,9 C 97 % 15 lf 1013,2 hPa 0,0 l/m 0 min 0 min 0 W/m 0,0 km/h (0 Bft) 93,48 %
11.01.2018 08:20 4,8 C 5,0 C 3,9 C 97 % 15 lf 1013,2 hPa 0,0 l/m 0 min 0 min 0 W/m 0,0 km/h (0 Bft) 95,74 %
11.01.2018 08:22 4,9 C 5,0 C 3,9 C 97 % 15 lf 1013,2 hPa 0,0 l/m 0 min 0 min 0 W/m 0,0 km/h (0 Bft) 97,87 %
11.01.2018 08:24 4,9 C 5,0 C 3,9 C 97 % 15 lf 1013,2 hPa 0,0 l/m 0 min 0 min 0 W/m 0,0 km/h (0 Bft) 95,74 %
11.01.2018 08:26 4,9 C 5,0 C 3,9 C 97 % 15 lf 1013,3 hPa 0,0 l/m 0 min 0 min 0 W/m 0,0 km/h (0 Bft) 97,87 %
11.01.2018 08:28 4,9 C 5,0 C 3,9 C 97 % 15 lf 1013,3 hPa 0,0 l/m 0 min 0 min 0 W/m 0,0 km/h (0 Bft) 97,87 %
11.01.2018 08:30 4,9 C 5,0 C 3,9 C 97 % 15 lf 1013,3 hPa 0,0 l/m 0 min 0 min 0 W/m 0,0 km/h (0 Bft) 97,83 %
11.01.2018 08:32 4,9 C 5,0 C 3,9 C 97 % 15 lf 1013,3 hPa 0,0 l/m 0 min 0 min 0 W/m 0,0 km/h (0 Bft) 95,74 %
11.01.2018 08:34 4,9 C 5,0 C 3,9 C 97 % 15 lf 1013,4 hPa 0,0 l/m 0 min 0 min 0 W/m 0,0 km/h (0 Bft) 97,87 %
11.01.2018 08:36 4,9 C 5,0 C 3,9 C 97 % 15 lf 1013,4 hPa 0,0 l/m 0 min 0 min 0 W/m 0,0 km/h (0 Bft) 97,62 %
11.01.2018 08:38 4,9 C 5,0 C 3,9 C 97 % 15 lf 1013,3 hPa 0,0 l/m 0 min 0 min 1 W/m 0,0 km/h (0 Bft) 97,92 %
11.01.2018 08:40 4,9 C 5,0 C 3,9 C 97 % 15 lf 1013,5 hPa 0,0 l/m 0 min 0 min 5 W/m 0,0 km/h (0 Bft) 97,87 %
11.01.2018 08:42 4,9 C 5,0 C 3,9 C 97 % 15 lf 1013,4 hPa 0,0 l/m 0 min 0 min 5 W/m 0,0 km/h (0 Bft) 97,92 %
11.01.2018 08:44 5,0 C 5,0 C 3,9 C 97 % 15 lf 1013,5 hPa 0,0 l/m 0 min 0 min 5 W/m 4,5 km/h (1 Bft) 93,75 %
11.01.2018 08:46 5,0 C 5,0 C 3,9 C 97 % 15 lf 1013,5 hPa 0,0 l/m 0 min 0 min 6 W/m 2,3 km/h (1 Bft) 100,00 %
11.01.2018 08:48 5,0 C 5,0 C 3,9 C 97 % 15 lf 1013,5 hPa 0,0 l/m 0 min 0 min 7 W/m 2,3 km/h (1 Bft) 95,74 %
11.01.2018 08:50 5,1 C 5,0 C 3,9 C 97 % 15 lf 1013,5 hPa 0,0 l/m 0 min 0 min 7 W/m 0,0 km/h (0 Bft) 100,00 %
11.01.2018 08:52 5,1 C 5,0 C 3,9 C 97 % 15 lf 1013,6 hPa 0,0 l/m 0 min 0 min 9 W/m 0,0 km/h (0 Bft) 100,00 %
11.01.2018 08:54 5,1 C 5,0 C 3,9 C 97 % 15 lf 1013,6 hPa 0,0 l/m 0 min 0 min 10 W/m 0,0 km/h (0 Bft) 100,00 %
11.01.2018 08:56 5,1 C 5,0 C 3,9 C 97 % 15 lf 1013,6 hPa 0,0 l/m 0 min 0 min 12 W/m 0,0 km/h (0 Bft) 97,92 %
11.01.2018 08:58 5,1 C 5,0 C 3,9 C 97 % 15 lf 1013,6 hPa 0,0 l/m 0 min 0 min 14 W/m 0,0 km/h (0 Bft) 97,92 %
11.01.2018 09:00 5,1 C 5,0 C 3,9 C 97 % 15 lf 1013,6 hPa 0,0 l/m 0 min 0 min 14 W/m 0,0 km/h (0 Bft) 100,00 %
11.01.2018 09:02 5,1 C 5,0 C 3,9 C 97 % 15 lf 1013,7 hPa 0,0 l/m 0 min 0 min 16 W/m 0,0 km/h (0 Bft) 100,00 %
11.01.2018 09:04 5,2 C 5,0 C 3,9 C 97 % 15 lf 1013,8 hPa 0,0 l/m 0 min 0 min 17 W/m 0,0 km/h (0 Bft) 100,00 %
11.01.2018 09:06 5,2 C 5,0 C 4,4 C 97 % 15 lf 1013,8 hPa 0,0 l/m 0 min 0 min 18 W/m 0,0 km/h (0 Bft) 97,87 %
11.01.2018 09:08 5,2 C 5,6 C 4,4 C 97 % 15 lf 1013,8 hPa 0,0 l/m 0 min 0 min 19 W/m 0,0 km/h (0 Bft) 100,00 %
11.01.2018 09:10 5,2 C 5,6 C 4,4 C 97 % 15 lf 1013,9 hPa 0,0 l/m 0 min 0 min 21 W/m 0,0 km/h (0 Bft) 100,00 %
11.01.2018 09:12 5,2 C 5,6 C 4,4 C 97 % 15 lf 1013,9 hPa 0,0 l/m 0 min 0 min 21 W/m 0,0 km/h (0 Bft) 95,74 %
11.01.2018 09:14 5,2 C 5,6 C 4,4 C 97 % 15 lf 1013,9 hPa 0,0 l/m 0 min 0 min 23 W/m 0,0 km/h (0 Bft) 100,00 %
11.01.2018 09:16 5,2 C 5,6 C 4,4 C 97 % 15 lf 1013,9 hPa 0,0 l/m 0 min 0 min 25 W/m 0,0 km/h (0 Bft) 97,87 %
11.01.2018 09:18 5,2 C 5,6 C 4,4 C 97 % 15 lf 1014,0 hPa 0,0 l/m 0 min 0 min 25 W/m 0,0 km/h (0 Bft) 100,00 %
11.01.2018 09:20 5,3 C 5,6 C 4,4 C 97 % 15 lf 1013,9 hPa 0,0 l/m 0 min 0 min 25 W/m 2,3 km/h (1 Bft) 100,00 %
11.01.2018 09:22 5,3 C 5,6 C 4,4 C 97 % 15 lf 1014,0 hPa 0,0 l/m 0 min 0 min 25 W/m 0,0 km/h (0 Bft) 97,87 %
11.01.2018 09:24 5,3 C 5,6 C 4,4 C 98 % 15 lf 1014,0 hPa 0,0 l/m 0 min 0 min 25 W/m 0,0 km/h (0 Bft) 100,00 %
11.01.2018 09:26 5,3 C 5,6 C 4,4 C 98 % 15 lf 1014,1 hPa 0,0 l/m 0 min 0 min 23 W/m 2,3 km/h (1 Bft) 100,00 %
11.01.2018 09:28 5,3 C 5,6 C 4,4 C 98 % 15 lf 1014,2 hPa 0,0 l/m 0 min 0 min 21 W/m 2,3 km/h (1 Bft) 100,00 %
11.01.2018 09:30 5,3 C 5,6 C 4,4 C 98 % 15 lf 1014,2 hPa 0,0 l/m 0 min 0 min 21 W/m 2,3 km/h (1 Bft) 100,00 %
11.01.2018 09:32 5,4 C 5,6 C 4,4 C 98 % 15 lf 1014,2 hPa 0,0 l/m 0 min 0 min 23 W/m 0,0 km/h (0 Bft) 97,87 %
11.01.2018 09:34 5,4 C 5,6 C 4,4 C 98 % 15 lf 1014,2 hPa 0,0 l/m 0 min 0 min 25 W/m 0,0 km/h (0 Bft) 100,00 %
11.01.2018 09:36 5,4 C 5,6 C 4,4 C 98 % 15 lf 1014,2 hPa 0,0 l/m 0 min 0 min 25 W/m 0,0 km/h (0 Bft) 100,00 %
11.01.2018 09:38 5,4 C 5,6 C 5,0 C 98 % 15 lf 1014,2 hPa 0,0 l/m 0 min 0 min 25 W/m 0,0 km/h (0 Bft) 94,44 %
11.01.2018 09:40 5,4 C 5,6 C 5,0 C 98 % 15 lf 1014,3 hPa 0,0 l/m 0 min 0 min 25 W/m 0,0 km/h (0 Bft) 100,00 %
11.01.2018 09:42 5,4 C 5,6 C 5,0 C 98 % 15 lf 1014,4 hPa 0,0 l/m 0 min 0 min 25 W/m 0,0 km/h (0 Bft) 100,00 %
11.01.2018 09:44 5,5 C 5,6 C 5,0 C 98 % 15 lf 1014,5 hPa 0,0 l/m 0 min 0 min 25 W/m 0,0 km/h (0 Bft) 100,00 %
11.01.2018 09:46 5,5 C 5,6 C 5,0 C 98 % 15 lf 1014,4 hPa 0,0 l/m 0 min 0 min 26 W/m 0,0 km/h (0 Bft) 100,00 %
11.01.2018 09:48 5,6 C 5,6 C 5,0 C 98 % 15 lf 1014,5 hPa 0,0 l/m 0 min 0 min 26 W/m 0,0 km/h (0 Bft) 97,83 %
11.01.2018 09:50 5,6 C 5,6 C 5,0 C 98 % 15 lf 1014,5 hPa 0,0 l/m 0 min 0 min 26 W/m 0,0 km/h (0 Bft) 100,00 %
11.01.2018 09:52 5,6 C 6,1 C 5,0 C 98 % 15 lf 1014,4 hPa 0,0 l/m 0 min 0 min 26 W/m 0,0 km/h (0 Bft) 100,00 %
11.01.2018 09:54 5,6 C 6,1 C 5,0 C 98 % 15 lf 1014,4 hPa 0,0 l/m 0 min 0 min 28 W/m 0,0 km/h (0 Bft) 91,67 %
11.01.2018 09:56 5,7 C 6,1 C 5,0 C 98 % 15 lf 1014,5 hPa 0,0 l/m 0 min 0 min 28 W/m 0,0 km/h (0 Bft) 97,87 %
11.01.2018 09:58 5,7 C 6,1 C 5,0 C 98 % 15 lf 1014,5 hPa 0,0 l/m 0 min 0 min 30 W/m 0,0 km/h (0 Bft) 97,22 %
11.01.2018 10:00 5,7 C 6,1 C 5,0 C 98 % 15 lf 1014,6 hPa 0,0 l/m 0 min 0 min 30 W/m 0,0 km/h (0 Bft) 93,62 %
11.01.2018 10:02 5,7 C 6,1 C 5,0 C 98 % 15 lf 1014,6 hPa 0,0 l/m 0 min 0 min 32 W/m 0,0 km/h (0 Bft) 95,92 %
11.01.2018 10:04 5,8 C 6,1 C 5,0 C 98 % 15 lf 1014,6 hPa 0,0 l/m 0 min 0 min 32 W/m 0,0 km/h (0 Bft) 95,65 %
11.01.2018 10:06 5,8 C 6,1 C 5,0 C 98 % 15 lf 1014,7 hPa 0,0 l/m 0 min 0 min 32 W/m 0,0 km/h (0 Bft) 97,92 %
11.01.2018 10:08 5,8 C 6,1 C 5,0 C 98 % 15 lf 1014,7 hPa 0,0 l/m 0 min 0 min 32 W/m 0,0 km/h (0 Bft) 97,87 %
11.01.2018 10:10 5,8 C 6,1 C 5,0 C 98 % 15 lf 1014,7 hPa 0,0 l/m 0 min 0 min 33 W/m 0,0 km/h (0 Bft) 93,62 %
11.01.2018 10:12 5,9 C 6,1 C 5,0 C 98 % 15 lf 1014,8 hPa 0,0 l/m 0 min 0 min 33 W/m 0,0 km/h (0 Bft) 95,74 %
11.01.2018 10:14 5,9 C 6,1 C 5,0 C 98 % 15 lf 1014,8 hPa 0,0 l/m 0 min 0 min 33 W/m 0,0 km/h (0 Bft) 95,74 %
11.01.2018 10:16 5,9 C 6,1 C 5,0 C 98 % 15 lf 1014,9 hPa 0,0 l/m 0 min 0 min 34 W/m 9,0 km/h (2 Bft) 93,48 %
11.01.2018 10:18 5,9 C 6,1 C 5,0 C 98 % 15 lf 1014,9 hPa 0,0 l/m 0 min 0 min 35 W/m 6,8 km/h (2 Bft) 95,74 %
11.01.2018 10:20 5,9 C 6,1 C 5,0 C 98 % 15 lf 1014,9 hPa 0,0 l/m 0 min 0 min 35 W/m 6,8 km/h (2 Bft) 93,62 %
11.01.2018 10:22 6,0 C 6,1 C 5,6 C 98 % 15 lf 1015,0 hPa 0,0 l/m 0 min 0 min 37 W/m 4,5 km/h (1 Bft) 89,36 %
11.01.2018 10:24 6,0 C 6,1 C 5,6 C 98 % 15 lf 1014,9 hPa 0,0 l/m 0 min 0 min 39 W/m 4,5 km/h (1 Bft) 91,49 %
11.01.2018 10:26 6,0 C 6,1 C 5,6 C 98 % 15 lf 1015,0 hPa 0,0 l/m 0 min 0 min 39 W/m 2,3 km/h (1 Bft) 91,30 %
11.01.2018 10:28 6,1 C 6,1 C 5,6 C 98 % 15 lf 1015,0 hPa 0,0 l/m 0 min 0 min 39 W/m 4,5 km/h (1 Bft) 92,86 %
11.01.2018 10:30 6,1 C 6,1 C 5,6 C 98 % 15 lf 1015,0 hPa 0,0 l/m 0 min 0 min 39 W/m 2,3 km/h (1 Bft) 95,83 %
11.01.2018 10:32 6,1 C 6,7 C 5,6 C 98 % 15 lf 1015,0 hPa 0,0 l/m 0 min 0 min 40 W/m 2,3 km/h (1 Bft) 93,62 %
11.01.2018 10:34 6,1 C 6,7 C 5,6 C 98 % 15 lf 1015,0 hPa 0,0 l/m 0 min 0 min 40 W/m 0,0 km/h (0 Bft) 89,36 %
11.01.2018 10:36 6,2 C 6,7 C 5,6 C 98 % 15 lf 1015,0 hPa 0,0 l/m 0 min 0 min 40 W/m 4,5 km/h (1 Bft) 91,49 %
11.01.2018 10:38 6,2 C 6,7 C 5,6 C 98 % 15 lf 1015,1 hPa 0,0 l/m 0 min 0 min 40 W/m 9,0 km/h (2 Bft) 89,36 %
11.01.2018 10:40 6,2 C 6,1 C 5,6 C 98 % 15 lf 1015,1 hPa 0,0 l/m 0 min 0 min 40 W/m 6,8 km/h (2 Bft) 91,67 %
11.01.2018 10:42 6,2 C 6,1 C 5,0 C 98 % 14 lf 1015,1 hPa 0,0 l/m 0 min 0 min 42 W/m 6,8 km/h (2 Bft) 95,74 %
11.01.2018 10:44 6,2 C 6,1 C 5,0 C 98 % 15 lf 1015,2 hPa 0,0 l/m 0 min 0 min 42 W/m 6,8 km/h (2 Bft) 95,83 %
11.01.2018 10:46 6,2 C 6,1 C 5,0 C 98 % 15 lf 1015,2 hPa 0,0 l/m 0 min 0 min 43 W/m 4,5 km/h (1 Bft) 95,74 %
11.01.2018 10:48 6,2 C 6,1 C 5,6 C 98 % 14 lf 1015,2 hPa 0,0 l/m 0 min 0 min 45 W/m 4,5 km/h (1 Bft) 97,83 %
11.01.2018 10:50 6,2 C 6,1 C 5,6 C 98 % 13 lf 1015,2 hPa 0,0 l/m 0 min 0 min 47 W/m 4,5 km/h (1 Bft) 95,74 %
11.01.2018 10:52 6,2 C 6,7 C 5,6 C 98 % 13 lf 1015,2 hPa 0,0 l/m 0 min 0 min 49 W/m 2,3 km/h (1 Bft) 93,62 %
11.01.2018 10:54 6,3 C 6,7 C 5,6 C 98 % 12 lf 1015,2 hPa 0,0 l/m 0 min 0 min 52 W/m 4,5 km/h (1 Bft) 93,75 %
11.01.2018 10:56 6,3 C 6,7 C 5,6 C 98 % 12 lf 1015,3 hPa 0,0 l/m 0 min 0 min 54 W/m 2,3 km/h (1 Bft) 93,62 %
11.01.2018 10:58 6,3 C 6,7 C 5,6 C 98 % 11 lf 1015,2 hPa 0,0 l/m 0 min 0 min 54 W/m 4,5 km/h (1 Bft) 93,62 %
11.01.2018 11:00 6,3 C 6,7 C 5,6 C 98 % 10 lf 1015,3 hPa 0,0 l/m 0 min 0 min 56 W/m 9,0 km/h (2 Bft) 95,74 %
11.01.2018 11:02 6,3 C 6,7 C 5,6 C 98 % 8 lf 1015,3 hPa 0,0 l/m 0 min 0 min 58 W/m 13,5 km/h (3 Bft) 93,48 %
11.01.2018 11:04 6,4 C 6,7 C 5,6 C 98 % 4 lf 1015,4 hPa 0,0 l/m 0 min 0 min 60 W/m 13,5 km/h (3 Bft) 97,67 %
11.01.2018 11:06 6,4 C 6,7 C 5,6 C 98 % 3 lf 1015,3 hPa 0,0 l/m 0 min 0 min 62 W/m 9,0 km/h (2 Bft) 97,87 %
11.01.2018 11:08 6,4 C 6,7 C 6,1 C 98 % 3 lf 1015,3 hPa 0,0 l/m 0 min 0 min 63 W/m 9,0 km/h (2 Bft) 95,74 %
11.01.2018 11:10 6,4 C 6,7 C 6,1 C 98 % 2 lf 1015,3 hPa 0,0 l/m 0 min 0 min 62 W/m 6,8 km/h (2 Bft) 97,87 %
11.01.2018 11:12 6,4 C 6,7 C 6,1 C 98 % 2 lf 1015,4 hPa 0,0 l/m 0 min 0 min 63 W/m 0,0 km/h (0 Bft) 97,83 %
11.01.2018 11:14 6,4 C 6,7 C 6,1 C 98 % 1 lf 1015,4 hPa 0,0 l/m 0 min 0 min 65 W/m 4,5 km/h (1 Bft) 95,83 %
11.01.2018 11:16 6,4 C 6,7 C 6,1 C 98 % 1 lf 1015,4 hPa 0,0 l/m 0 min 0 min 70 W/m 2,3 km/h (1 Bft) 97,92 %
11.01.2018 11:18 6,4 C 6,7 C 6,1 C 98 % 0 lf 1015,4 hPa 0,0 l/m 0 min 0 min 74 W/m 0,0 km/h (0 Bft) 95,83 %
11.01.2018 11:20 6,4 C 7,2 C 6,1 C 98 % 0 lf 1015,4 hPa 0,0 l/m 0 min 0 min 74 W/m 0,0 km/h (0 Bft) 93,62 %
11.01.2018 11:22 6,5 C 7,2 C 6,7 C 98 % 0 lf 1015,4 hPa 0,0 l/m 0 min 0 min 74 W/m 0,0 km/h (0 Bft) 93,62 %
11.01.2018 11:24 6,5 C 7,2 C 6,7 C 98 % 0 lf 1015,4 hPa 0,0 l/m 0 min 0 min 76 W/m 0,0 km/h (0 Bft) 95,74 %
11.01.2018 11:26 6,5 C 7,2 C 6,7 C 98 % 0 lf 1015,4 hPa 0,0 l/m 0 min 0 min 77 W/m 4,5 km/h (1 Bft) 95,74 %
11.01.2018 11:28 6,5 C 7,2 C 6,1 C 98 % 0 lf 1015,4 hPa 0,0 l/m 0 min 0 min 79 W/m 9,0 km/h (2 Bft) 97,87 %
11.01.2018 11:30 6,6 C 7,2 C 6,1 C 98 % 0 lf 1015,4 hPa 0,0 l/m 0 min 0 min 82 W/m 6,8 km/h (2 Bft) 95,74 %
11.01.2018 11:32 6,6 C 7,2 C 6,1 C 98 % 0 lf 1015,4 hPa 0,0 l/m 0 min 0 min 85 W/m 4,5 km/h (1 Bft) 95,74 %
11.01.2018 11:34 6,6 C 7,2 C 6,1 C 98 % 0 lf 1015,4 hPa 0,0 l/m 0 min 0 min 90 W/m 0,0 km/h (0 Bft) 97,87 %
11.01.2018 11:36 6,6 C 7,8 C 6,7 C 98 % 0 lf 1015,4 hPa 0,0 l/m 0 min 0 min 93 W/m 0,0 km/h (0 Bft) 100,00 %
11.01.2018 11:38 6,7 C 7,8 C 6,1 C 98 % 0 lf 1015,4 hPa 0,0 l/m 0 min 0 min 95 W/m 6,8 km/h (2 Bft) 100,00 %
11.01.2018 11:40 6,7 C 7,2 C 6,1 C 98 % 0 lf 1015,4 hPa 0,0 l/m 0 min 0 min 96 W/m 6,8 km/h (2 Bft) 97,87 %
11.01.2018 11:42 6,7 C 7,8 C 6,1 C 98 % 0 lf 1015,4 hPa 0,0 l/m 0 min 0 min 99 W/m 4,5 km/h (1 Bft) 100,00 %
11.01.2018 11:44 6,7 C 7,8 C 6,7 C 98 % 0 lf 1015,4 hPa 0,0 l/m 0 min 0 min 102 W/m 2,3 km/h (1 Bft) 97,87 %
11.01.2018 11:46 6,7 C 7,8 C 6,7 C 98 % 0 lf 1015,4 hPa 0,0 l/m 0 min 0 min 106 W/m 0,0 km/h (0 Bft) 100,00 %
11.01.2018 11:48 6,7 C 7,8 C 6,7 C 98 % 0 lf 1015,5 hPa 0,0 l/m 0 min 0 min 107 W/m 6,8 km/h (2 Bft) 97,83 %
11.01.2018 11:50 6,8 C 7,8 C 6,7 C 98 % 0 lf 1015,5 hPa 0,0 l/m 0 min 0 min 107 W/m 6,8 km/h (2 Bft) 100,00 %
11.01.2018 11:52 6,8 C 7,8 C 6,7 C 98 % 0 lf 1015,4 hPa 0,0 l/m 0 min 0 min 108 W/m 4,5 km/h (1 Bft) 100,00 %
11.01.2018 11:54 6,8 C 7,8 C 6,7 C 98 % 0 lf 1015,4 hPa 0,0 l/m 0 min 0 min 112 W/m 0,0 km/h (0 Bft) 95,74 %
11.01.2018 11:56 6,8 C 8,3 C 6,7 C 98 % 0 lf 1015,5 hPa 0,0 l/m 0 min 0 min 116 W/m 4,5 km/h (1 Bft) 97,87 %
11.01.2018 11:58 6,8 C 8,3 C 6,7 C 98 % 0 lf 1015,5 hPa 0,0 l/m 0 min 0 min 121 W/m 4,5 km/h (1 Bft) 100,00 %
11.01.2018 12:00 6,9 C 8,3 C 6,7 C 98 % 0 lf 1015,4 hPa 0,0 l/m 0 min 0 min 121 W/m 6,8 km/h (2 Bft) 100,00 %
11.01.2018 12:02 6,9 C 8,3 C 6,7 C 98 % 0 lf 1015,5 hPa 0,0 l/m 0 min 0 min 125 W/m 6,8 km/h (2 Bft) 100,00 %
11.01.2018 12:04 6,9 C 8,3 C 6,7 C 98 % 0 lf 1015,5 hPa 0,0 l/m 0 min 0 min 129 W/m 6,8 km/h (2 Bft) 100,00 %
11.01.2018 12:06 6,9 C 8,3 C 6,7 C 98 % 0 lf 1015,5 hPa 0,0 l/m 0 min 0 min 134 W/m 6,8 km/h (2 Bft) 98,11 %
11.01.2018 12:08 6,9 C 8,3 C 6,7 C 98 % 0 lf 1015,5 hPa 0,0 l/m 0 min 0 min 130 W/m 9,0 km/h (2 Bft) 95,24 %
11.01.2018 12:10 7,0 C 7,8 C 6,7 C 98 % 0 lf 1015,6 hPa 0,0 l/m 0 min 0 min 118 W/m 9,0 km/h (2 Bft) 97,87 %
11.01.2018 12:12 7,0 C 7,8 C 6,7 C 98 % 0 lf 1015,6 hPa 0,0 l/m 0 min 0 min 111 W/m 9,0 km/h (2 Bft) 97,92 %
11.01.2018 12:14 7,0 C 7,8 C 6,7 C 98 % 0 lf 1015,5 hPa 0,0 l/m 0 min 0 min 111 W/m 9,0 km/h (2 Bft) 93,75 %
11.01.2018 12:16 7,0 C 7,8 C 6,7 C 98 % 0 lf 1015,6 hPa 0,0 l/m 0 min 0 min 111 W/m 11,3 km/h (2 Bft) 97,87 %
11.01.2018 12:18 7,0 C 7,8 C 6,7 C 98 % 0 lf 1015,6 hPa 0,0 l/m 0 min 0 min 109 W/m 11,3 km/h (2 Bft) 93,62 %
11.01.2018 12:20 7,1 C 7,8 C 6,7 C 98 % 0 lf 1015,6 hPa 0,0 l/m 0 min 0 min 105 W/m 11,3 km/h (2 Bft) 97,83 %
11.01.2018 12:22 7,1 C 7,8 C 6,7 C 98 % 0 lf 1015,6 hPa 0,0 l/m 0 min 0 min 99 W/m 9,0 km/h (2 Bft) 97,87 %
11.01.2018 12:24 7,1 C 7,8 C 6,7 C 98 % 0 lf 1015,6 hPa 0,0 l/m 0 min 0 min 98 W/m 11,3 km/h (2 Bft) 97,92 %
11.01.2018 12:26 7,1 C 7,8 C 6,7 C 98 % 0 lf 1015,6 hPa 0,0 l/m 0 min 0 min 103 W/m 9,0 km/h (2 Bft) 97,87 %
11.01.2018 12:28 7,1 C 7,8 C 6,7 C 98 % 0 lf 1015,6 hPa 0,0 l/m 0 min 0 min 108 W/m 13,5 km/h (3 Bft) 95,83 %
11.01.2018 12:30 7,1 C 7,8 C 6,7 C 98 % 0 lf 1015,6 hPa 0,0 l/m 0 min 0 min 116 W/m 11,3 km/h (2 Bft) 95,74 %
11.01.2018 12:32 7,1 C 7,8 C 6,7 C 98 % 0 lf 1015,6 hPa 0,0 l/m 0 min 0 min 124 W/m 9,0 km/h (2 Bft) 95,74 %
11.01.2018 12:34 7,2 C 7,8 C 6,7 C 98 % 0 lf 1015,6 hPa 0,0 l/m 0 min 0 min 132 W/m 11,3 km/h (2 Bft) 97,83 %
11.01.2018 12:36 7,2 C 8,3 C 6,7 C 98 % 0 lf 1015,6 hPa 0,0 l/m 0 min 0 min 138 W/m 9,0 km/h (2 Bft) 93,62 %
11.01.2018 12:38 7,2 C 8,3 C 6,7 C 98 % 0 lf 1015,7 hPa 0,0 l/m 0 min 0 min 142 W/m 6,8 km/h (2 Bft) 97,87 %
11.01.2018 12:40 7,2 C 8,9 C 7,2 C 98 % 0 lf 1015,7 hPa 0,0 l/m 0 min 0 min 145 W/m 4,5 km/h (1 Bft) 95,74 %
11.01.2018 12:42 7,2 C 9,4 C 7,2 C 98 % 0 lf 1015,6 hPa 0,0 l/m 0 min 0 min 145 W/m 4,5 km/h (1 Bft) 97,87 %
11.01.2018 12:44 7,2 C 9,4 C 7,2 C 98 % 0 lf 1015,6 hPa 0,0 l/m 0 min 0 min 144 W/m 6,8 km/h (2 Bft) 95,74 %
11.01.2018 12:46 7,3 C 9,4 C 7,2 C 98 % 0 lf 1015,6 hPa 0,0 l/m 0 min 0 min 147 W/m 6,8 km/h (2 Bft) 95,65 %
11.01.2018 12:48 7,3 C 10,0 C 7,2 C 98 % 0 lf 1015,6 hPa 0,0 l/m 0 min 0 min 155 W/m 4,5 km/h (1 Bft) 97,87 %
11.01.2018 12:50 7,4 C 10,6 C 7,2 C 98 % 0 lf 1015,6 hPa 0,0 l/m 2 min 0 min 193 W/m 6,8 km/h (2 Bft) 95,74 %
11.01.2018 12:52 7,4 C 11,1 C 7,2 C 98 % 0 lf 1015,6 hPa 0,0 l/m 2 min 0 min 189 W/m 6,8 km/h (2 Bft) 97,87 %
11.01.2018 12:54 7,4 C 12,2 C 7,2 C 98 % 0 lf 1015,6 hPa 0,0 l/m 2 min 0 min 205 W/m 6,8 km/h (2 Bft) 95,74 %
11.01.2018 12:56 7,5 C 11,7 C 6,7 C 98 % 0 lf 1015,7 hPa 0,0 l/m 2 min 0 min 202 W/m 9,0 km/h (2 Bft) 95,74 %
11.01.2018 12:58 7,5 C 11,1 C 6,7 C 98 % 0 lf 1015,6 hPa 0,0 l/m 0 min 0 min 160 W/m 9,0 km/h (2 Bft) 95,65 %
11.01.2018 13:00 7,6 C 11,1 C 6,7 C 98 % 0 lf 1015,7 hPa 0,0 l/m 0 min 0 min 142 W/m 9,0 km/h (2 Bft) 95,74 %
11.01.2018 13:02 7,6 C 11,1 C 6,7 C 98 % 0 lf 1015,6 hPa 0,0 l/m 0 min 0 min 158 W/m 9,0 km/h (2 Bft) 93,62 %
11.01.2018 13:04 7,6 C 10,6 C 6,1 C 98 % 0 lf 1015,7 hPa 0,0 l/m 0 min 0 min 88 W/m 6,8 km/h (2 Bft) 95,45 %
11.01.2018 13:06 7,6 C 10,0 C 6,1 C 98 % 0 lf 1015,7 hPa 0,0 l/m 0 min 0 min 81 W/m 6,8 km/h (2 Bft) 95,74 %
11.01.2018 13:08 7,6 C 9,4 C 6,1 C 98 % 0 lf 1015,7 hPa 0,0 l/m 0 min 0 min 79 W/m 6,8 km/h (2 Bft) 93,48 %
11.01.2018 13:10 7,6 C 9,4 C 6,1 C 98 % 0 lf 1015,7 hPa 0,0 l/m 0 min 0 min 83 W/m 4,5 km/h (1 Bft) 95,74 %
11.01.2018 13:12 7,6 C 10,0 C 6,1 C 98 % 0 lf 1015,7 hPa 0,0 l/m 0 min 0 min 132 W/m 4,5 km/h (1 Bft) 91,49 %
11.01.2018 13:14 7,6 C 11,7 C 6,1 C 98 % 0 lf 1015,8 hPa 0,0 l/m 2 min 0 min 203 W/m 2,3 km/h (1 Bft) 95,83 %
11.01.2018 13:16 7,6 C 12,2 C 6,1 C 98 % 0 lf 1015,7 hPa 0,0 l/m 2 min 0 min 210 W/m 4,5 km/h (1 Bft) 93,62 %
11.01.2018 13:18 7,6 C 13,3 C 6,7 C 98 % 0 lf 1015,7 hPa 0,0 l/m 2 min 0 min 205 W/m 4,5 km/h (1 Bft) 93,48 %
11.01.2018 13:20 7,6 C 13,9 C 6,1 C 98 % 0 lf 1015,7 hPa 0,0 l/m 2 min 0 min 208 W/m 0,0 km/h (0 Bft) 91,49 %
11.01.2018 13:22 7,7 C 13,9 C 6,1 C 98 % 0 lf 1015,7 hPa 0,0 l/m 2 min 0 min 211 W/m 6,8 km/h (2 Bft) 95,74 %
11.01.2018 13:24 7,7 C 13,3 C 6,1 C 98 % 0 lf 1015,7 hPa 0,0 l/m 2 min 0 min 212 W/m 9,0 km/h (2 Bft) 95,83 %
11.01.2018 13:26 7,7 C 13,3 C 6,1 C 98 % 0 lf 1015,8 hPa 0,0 l/m 2 min 0 min 206 W/m 6,8 km/h (2 Bft) 95,74 %
11.01.2018 13:28 7,7 C 13,9 C 6,7 C 98 % 0 lf 1015,8 hPa 0,0 l/m 2 min 0 min 203 W/m 6,8 km/h (2 Bft) 95,83 %
11.01.2018 13:30 7,7 C 14,4 C 6,7 C 98 % 0 lf 1015,8 hPa 0,0 l/m 2 min 0 min 207 W/m 2,3 km/h (1 Bft) 95,65 %
11.01.2018 13:32 7,7 C 14,4 C 6,7 C 98 % 0 lf 1015,8 hPa 0,0 l/m 2 min 0 min 209 W/m 4,5 km/h (1 Bft) 97,92 %
11.01.2018 13:34 7,7 C 15,0 C 6,7 C 98 % 0 lf 1015,8 hPa 0,0 l/m 2 min 0 min 207 W/m 4,5 km/h (1 Bft) 97,87 %
11.01.2018 13:36 7,8 C 15,6 C 6,7 C 98 % 0 lf 1015,8 hPa 0,0 l/m 2 min 0 min 208 W/m 2,3 km/h (1 Bft) 97,87 %
11.01.2018 13:38 7,8 C 15,6 C 6,7 C 98 % 0 lf 1015,7 hPa 0,0 l/m 2 min 0 min 206 W/m 0,0 km/h (0 Bft) 97,87 %
11.01.2018 13:40 7,8 C 16,1 C 6,7 C 98 % 0 lf 1015,8 hPa 0,0 l/m 2 min 0 min 205 W/m 4,5 km/h (1 Bft) 93,62 %
11.01.2018 13:42 7,9 C 16,7 C 6,7 C 98 % 0 lf 1015,8 hPa 0,0 l/m 2 min 0 min 205 W/m 6,8 km/h (2 Bft) 97,87 %
11.01.2018 13:44 7,9 C 16,7 C 6,7 C 98 % 0 lf 1015,8 hPa 0,0 l/m 2 min 0 min 206 W/m 4,5 km/h (1 Bft) 97,83 %
11.01.2018 13:46 8,0 C 17,8 C 6,7 C 98 % 0 lf 1015,8 hPa 0,0 l/m 2 min 0 min 205 W/m 4,5 km/h (1 Bft) 95,74 %
11.01.2018 13:48 8,1 C 18,3 C 7,2 C 98 % 0 lf 1015,8 hPa 0,0 l/m 2 min 0 min 206 W/m 6,8 km/h (2 Bft) 93,62 %
11.01.2018 13:50 8,1 C 18,3 C 7,2 C 98 % 0 lf 1015,8 hPa 0,0 l/m 2 min 0 min 208 W/m 6,8 km/h (2 Bft) 93,62 %
11.01.2018 13:52 8,2 C 18,9 C 7,2 C 98 % 0 lf 1015,8 hPa 0,0 l/m 2 min 0 min 217 W/m 4,5 km/h (1 Bft) 95,74 %
11.01.2018 13:54 8,2 C 18,3 C 7,2 C 98 % 0 lf 1015,8 hPa 0,0 l/m 2 min 0 min 232 W/m 6,8 km/h (2 Bft) 92,86 %
11.01.2018 13:56 8,3 C 18,3 C 7,2 C 98 % 0 lf 1015,8 hPa 0,0 l/m 2 min 0 min 251 W/m 6,8 km/h (2 Bft) 95,74 %
11.01.2018 13:58 8,3 C 18,9 C 7,8 C 98 % 0 lf 1015,9 hPa 0,0 l/m 2 min 0 min 264 W/m 6,8 km/h (2 Bft) 93,62 %
11.01.2018 14:00 8,3 C 18,9 C 7,8 C 98 % 0 lf 1015,9 hPa 0,0 l/m 2 min 0 min 269 W/m 4,5 km/h (1 Bft) 95,74 %
11.01.2018 14:02 8,4 C 18,3 C 7,8 C 98 % 0 lf 1015,9 hPa 0,0 l/m 2 min 0 min 254 W/m 4,5 km/h (1 Bft) 94,00 %
11.01.2018 14:04 8,4 C 18,9 C 7,8 C 98 % 0 lf 1015,9 hPa 0,0 l/m 2 min 0 min 244 W/m 2,3 km/h (1 Bft) 93,62 %
11.01.2018 14:06 8,4 C 17,8 C 7,8 C 98 % 0 lf 1016,0 hPa 0,0 l/m 2 min 0 min 202 W/m 4,5 km/h (1 Bft) 93,48 %
11.01.2018 14:08 8,4 C 16,7 C 7,8 C 98 % 0 lf 1016,0 hPa 0,0 l/m 2 min 0 min 157 W/m 6,8 km/h (2 Bft) 95,83 %
11.01.2018 14:10 8,5 C 15,0 C 7,8 C 98 % 0 lf 1016,0 hPa 0,0 l/m 0 min 0 min 136 W/m 9,0 km/h (2 Bft) 95,74 %
11.01.2018 14:12 8,6 C 13,9 C 7,8 C 98 % 0 lf 1016,1 hPa 0,0 l/m 0 min 0 min 122 W/m 6,8 km/h (2 Bft) 93,62 %
11.01.2018 14:14 8,6 C 12,8 C 7,8 C 98 % 0 lf 1016,1 hPa 0,0 l/m 0 min 0 min 115 W/m 4,5 km/h (1 Bft) 95,74 %
11.01.2018 14:16 8,6 C 12,2 C 7,8 C 98 % 0 lf 1016,1 hPa 0,0 l/m 0 min 0 min 114 W/m 6,8 km/h (2 Bft) 97,83 %
11.01.2018 14:18 8,6 C 11,7 C 7,8 C 98 % 0 lf 1016,1 hPa 0,0 l/m 0 min 0 min 112 W/m 2,3 km/h (1 Bft) 97,87 %
11.01.2018 14:20 8,6 C 11,1 C 7,8 C 98 % 0 lf 1016,1 hPa 0,0 l/m 0 min 0 min 107 W/m 6,8 km/h (2 Bft) 93,62 %
11.01.2018 14:22 8,7 C 11,1 C 7,8 C 98 % 0 lf 1016,2 hPa 0,0 l/m 0 min 0 min 101 W/m 9,0 km/h (2 Bft) 97,96 %
11.01.2018 14:24 8,6 C 10,6 C 7,2 C 98 % 0 lf 1016,2 hPa 0,0 l/m 0 min 0 min 97 W/m 6,8 km/h (2 Bft) 97,87 %
11.01.2018 14:26 8,6 C 10,6 C 7,2 C 97 % 0 lf 1016,3 hPa 0,0 l/m 0 min 0 min 95 W/m 6,8 km/h (2 Bft) 97,87 %
11.01.2018 14:28 8,6 C 10,6 C 7,2 C 97 % 0 lf 1016,3 hPa 0,0 l/m 0 min 0 min 95 W/m 4,5 km/h (1 Bft) 100,00 %
11.01.2018 14:30 8,6 C 10,6 C 7,2 C 97 % 0 lf 1016,3 hPa 0,0 l/m 0 min 0 min 96 W/m 4,5 km/h (1 Bft) 100,00 %
11.01.2018 14:32 8,6 C 10,6 C 7,2 C 97 % 0 lf 1016,3 hPa 0,0 l/m 0 min 0 min 95 W/m 4,5 km/h (1 Bft) 95,74 %
11.01.2018 14:34 8,6 C 10,6 C 7,2 C 97 % 0 lf 1016,3 hPa 0,0 l/m 0 min 0 min 90 W/m 4,5 km/h (1 Bft) 97,87 %
11.01.2018 14:36 8,5 C 10,0 C 7,2 C 97 % 0 lf 1016,3 hPa 0,0 l/m 0 min 0 min 84 W/m 6,8 km/h (2 Bft) 100,00 %
11.01.2018 14:38 8,5 C 10,0 C 7,2 C 97 % 0 lf 1016,4 hPa 0,0 l/m 0 min 0 min 79 W/m 4,5 km/h (1 Bft) 100,00 %
11.01.2018 14:40 8,6 C 10,0 C 7,2 C 97 % 0 lf 1016,3 hPa 0,0 l/m 0 min 0 min 77 W/m 4,5 km/h (1 Bft) 97,87 %
11.01.2018 14:42 8,6 C 10,0 C 7,2 C 96 % 0 lf 1016,4 hPa 0,0 l/m 0 min 0 min 77 W/m 6,8 km/h (2 Bft) 97,83 %
11.01.2018 14:44 8,6 C 10,0 C 7,2 C 96 % 0 lf 1016,4 hPa 0,0 l/m 0 min 0 min 72 W/m 6,8 km/h (2 Bft) 97,87 %
11.01.2018 14:46 8,6 C 10,0 C 7,2 C 96 % 0 lf 1016,4 hPa 0,0 l/m 0 min 0 min 67 W/m 4,5 km/h (1 Bft) 97,87 %
11.01.2018 14:48 8,6 C 10,0 C 7,2 C 96 % 0 lf 1016,4 hPa 0,0 l/m 0 min 0 min 63 W/m 4,5 km/h (1 Bft) 93,62 %
11.01.2018 14:50 8,6 C 9,4 C 7,2 C 96 % 0 lf 1016,5 hPa 0,0 l/m 0 min 0 min 62 W/m 6,8 km/h (2 Bft) 97,87 %
11.01.2018 14:52 8,6 C 9,4 C 7,2 C 96 % 0 lf 1016,5 hPa 0,0 l/m 0 min 0 min 62 W/m 6,8 km/h (2 Bft) 97,87 %
11.01.2018 14:54 8,6 C 9,4 C 7,2 C 95 % 0 lf 1016,5 hPa 0,0 l/m 0 min 0 min 62 W/m 6,8 km/h (2 Bft) 95,65 %
11.01.2018 14:56 8,6 C 9,4 C 7,2 C 95 % 0 lf 1016,5 hPa 0,0 l/m 0 min 0 min 61 W/m 6,8 km/h (2 Bft) 95,74 %
11.01.2018 14:58 8,6 C 9,4 C 7,2 C 95 % 0 lf 1016,6 hPa 0,0 l/m 0 min 0 min 56 W/m 6,8 km/h (2 Bft) 97,87 %
11.01.2018 15:00 8,6 C 9,4 C 7,2 C 95 % 0 lf 1016,6 hPa 0,0 l/m 0 min 0 min 52 W/m 4,5 km/h (1 Bft) 91,49 %
11.01.2018 15:02 8,6 C 9,4 C 7,2 C 95 % 0 lf 1016,7 hPa 0,0 l/m 0 min 0 min 49 W/m 4,5 km/h (1 Bft) 97,62 %
11.01.2018 15:04 8,6 C 9,4 C 7,2 C 94 % 0 lf 1016,6 hPa 0,0 l/m 0 min 0 min 46 W/m 6,8 km/h (2 Bft) 93,48 %
11.01.2018 15:06 8,6 C 9,4 C 7,2 C 94 % 0 lf 1016,7 hPa 0,0 l/m 0 min 0 min 44 W/m 6,8 km/h (2 Bft) 95,24 %
11.01.2018 15:08 8,6 C 9,4 C 7,2 C 94 % 0 lf 1016,7 hPa 0,0 l/m 0 min 0 min 41 W/m 6,8 km/h (2 Bft) 94,83 %
11.01.2018 15:10 8,6 C 8,9 C 7,2 C 94 % 0 lf 1016,7 hPa 0,0 l/m 0 min 0 min 40 W/m 9,0 km/h (2 Bft) 97,14 %
11.01.2018 15:12 8,6 C 8,9 C 7,2 C 93 % 0 lf 1016,8 hPa 0,0 l/m 0 min 0 min 40 W/m 9,0 km/h (2 Bft) 91,49 %
11.01.2018 15:14 8,6 C 8,9 C 7,2 C 93 % 0 lf 1016,7 hPa 0,0 l/m 0 min 0 min 39 W/m 11,3 km/h (2 Bft) 96,61 %
11.01.2018 15:16 8,6 C 8,9 C 7,2 C 93 % 0 lf 1016,8 hPa 0,0 l/m 0 min 0 min 39 W/m 11,3 km/h (2 Bft) 95,74 %
11.01.2018 15:18 8,6 C 8,9 C 7,2 C 93 % 0 lf 1016,8 hPa 0,0 l/m 0 min 0 min 40 W/m 9,0 km/h (2 Bft) 94,29 %
11.01.2018 15:20 8,6 C 8,9 C 7,2 C 93 % 0 lf 1016,8 hPa 0,0 l/m 0 min 0 min 42 W/m 9,0 km/h (2 Bft) 96,55 %
11.01.2018 15:22 8,7 C 8,9 C 7,2 C 93 % 0 lf 1016,9 hPa 0,0 l/m 0 min 0 min 43 W/m 13,5 km/h (3 Bft) 95,74 %
11.01.2018 15:24 8,7 C 8,9 C 7,2 C 93 % 0 lf 1016,9 hPa 0,0 l/m 0 min 0 min 44 W/m 11,3 km/h (2 Bft) 97,14 %
11.01.2018 15:26 8,7 C 8,9 C 7,2 C 93 % 0 lf 1017,0 hPa 0,0 l/m 0 min 0 min 43 W/m 13,5 km/h (3 Bft) 95,74 %
11.01.2018 15:28 8,7 C 8,3 C 7,2 C 93 % 0 lf 1017,0 hPa 0,0 l/m 0 min 0 min 40 W/m 13,5 km/h (3 Bft) 97,87 %
11.01.2018 15:30 8,6 C 8,3 C 7,2 C 92 % 0 lf 1017,1 hPa 0,0 l/m 0 min 0 min 38 W/m 9,0 km/h (2 Bft) 96,55 %
11.01.2018 15:32 8,6 C 8,3 C 6,7 C 92 % 0 lf 1017,1 hPa 0,0 l/m 0 min 0 min 36 W/m 15,8 km/h (3 Bft) 97,14 %
11.01.2018 15:34 8,6 C 8,3 C 6,7 C 92 % 0 lf 1017,1 hPa 0,0 l/m 0 min 0 min 35 W/m 11,3 km/h (2 Bft) 95,74 %
11.01.2018 15:36 8,6 C 8,3 C 6,7 C 92 % 0 lf 1017,2 hPa 0,0 l/m 0 min 0 min 35 W/m 13,5 km/h (3 Bft) 95,74 %
11.01.2018 15:38 8,6 C 8,3 C 6,7 C 92 % 0 lf 1017,2 hPa 0,0 l/m 0 min 0 min 35 W/m 11,3 km/h (2 Bft) 95,74 %
11.01.2018 15:40 8,5 C 8,3 C 6,7 C 92 % 0 lf 1017,2 hPa 0,0 l/m 0 min 0 min 33 W/m 11,3 km/h (2 Bft) 98,31 %
11.01.2018 15:42 8,5 C 8,3 C 6,7 C 92 % 0 lf 1017,3 hPa 0,0 l/m 0 min 0 min 31 W/m 11,3 km/h (2 Bft) 95,65 %
11.01.2018 15:44 8,4 C 8,3 C 6,7 C 93 % 0 lf 1017,3 hPa 0,0 l/m 0 min 0 min 29 W/m 13,5 km/h (3 Bft) 100,00 %
11.01.2018 15:46 8,4 C 8,3 C 6,7 C 93 % 0 lf 1017,3 hPa 0,0 l/m 0 min 0 min 27 W/m 13,5 km/h (3 Bft) 95,74 %
11.01.2018 15:48 8,4 C 8,3 C 6,7 C 93 % 0 lf 1017,3 hPa 0,0 l/m 0 min 0 min 26 W/m 11,3 km/h (2 Bft) 97,87 %
11.01.2018 15:50 8,4 C 8,3 C 6,7 C 93 % 0 lf 1017,3 hPa 0,0 l/m 0 min 0 min 26 W/m 11,3 km/h (2 Bft) 98,31 %
11.01.2018 15:52 8,4 C 8,3 C 6,7 C 92 % 0 lf 1017,3 hPa 0,0 l/m 0 min 0 min 26 W/m 9,0 km/h (2 Bft) 100,00 %
11.01.2018 15:54 8,3 C 8,3 C 6,7 C 92 % 0 lf 1017,3 hPa 0,0 l/m 0 min 0 min 26 W/m 6,8 km/h (2 Bft) 97,22 %
11.01.2018 15:56 8,3 C 8,3 C 6,7 C 93 % 0 lf 1017,3 hPa 0,0 l/m 0 min 0 min 26 W/m 6,8 km/h (2 Bft) 100,00 %
11.01.2018 15:58 8,3 C 8,3 C 6,7 C 93 % 0 lf 1017,4 hPa 0,0 l/m 0 min 0 min 25 W/m 9,0 km/h (2 Bft) 100,00 %
11.01.2018 16:00 8,3 C 7,8 C 6,7 C 93 % 0 lf 1017,4 hPa 0,0 l/m 0 min 0 min 25 W/m 9,0 km/h (2 Bft) 100,00 %
11.01.2018 16:02 8,3 C 7,8 C 6,7 C 93 % 0 lf 1017,4 hPa 0,0 l/m 0 min 0 min 25 W/m 11,3 km/h (2 Bft) 95,83 %
11.01.2018 16:04 8,2 C 7,8 C 6,7 C 93 % 0 lf 1017,4 hPa 0,0 l/m 0 min 0 min 24 W/m 11,3 km/h (2 Bft) 97,87 %
11.01.2018 16:06 8,2 C 7,8 C 6,7 C 93 % 0 lf 1017,5 hPa 0,0 l/m 0 min 0 min 23 W/m 9,0 km/h (2 Bft) 100,00 %
11.01.2018 16:08 8,2 C 7,8 C 6,7 C 93 % 0 lf 1017,5 hPa 0,0 l/m 0 min 0 min 23 W/m 6,8 km/h (2 Bft) 100,00 %
11.01.2018 16:10 8,2 C 7,8 C 6,7 C 93 % 0 lf 1017,5 hPa 0,0 l/m 0 min 0 min 22 W/m 9,0 km/h (2 Bft) 95,74 %
11.01.2018 16:12 8,2 C 7,8 C 6,7 C 93 % 0 lf 1017,5 hPa 0,0 l/m 0 min 0 min 21 W/m 9,0 km/h (2 Bft) 100,00 %
11.01.2018 16:14 8,2 C 7,8 C 6,7 C 93 % 0 lf 1017,5 hPa 0,0 l/m 0 min 0 min 19 W/m 4,5 km/h (1 Bft) 97,87 %
11.01.2018 16:16 8,2 C 7,8 C 6,7 C 93 % 0 lf 1017,5 hPa 0,0 l/m 0 min 0 min 17 W/m 2,3 km/h (1 Bft) 97,87 %
11.01.2018 16:18 8,1 C 7,8 C 6,7 C 93 % 0 lf 1017,5 hPa 0,0 l/m 0 min 0 min 16 W/m 4,5 km/h (1 Bft) 97,83 %
11.01.2018 16:20 8,1 C 7,8 C 6,7 C 93 % 0 lf 1017,6 hPa 0,0 l/m 0 min 0 min 14 W/m 4,5 km/h (1 Bft) 96,61 %
11.01.2018 16:22 8,1 C 7,8 C 6,7 C 93 % 0 lf 1017,6 hPa 0,0 l/m 0 min 0 min 12 W/m 4,5 km/h (1 Bft) 100,00 %
11.01.2018 16:24 8,1 C 7,8 C 6,7 C 93 % 0 lf 1017,6 hPa 0,0 l/m 0 min 0 min 12 W/m 6,8 km/h (2 Bft) 100,00 %
11.01.2018 16:26 8,1 C 7,8 C 6,7 C 93 % 0 lf 1017,7 hPa 0,0 l/m 0 min 0 min 11 W/m 6,8 km/h (2 Bft) 97,87 %
11.01.2018 16:28 8,1 C 7,8 C 6,7 C 93 % 0 lf 1017,7 hPa 0,0 l/m 0 min 0 min 10 W/m 6,8 km/h (2 Bft) 100,00 %
11.01.2018 16:30 8,1 C 7,8 C 6,7 C 93 % 0 lf 1017,7 hPa 0,0 l/m 0 min 0 min 9 W/m 6,8 km/h (2 Bft) 97,83 %
11.01.2018 16:32 8,0 C 7,8 C 6,7 C 93 % 0 lf 1017,8 hPa 0,0 l/m 0 min 0 min 9 W/m 6,8 km/h (2 Bft) 95,74 %
11.01.2018 16:34 8,0 C 7,8 C 6,7 C 93 % 0 lf 1017,8 hPa 0,0 l/m 0 min 0 min 7 W/m 4,5 km/h (1 Bft) 100,00 %
11.01.2018 16:36 8,0 C 7,8 C 6,7 C 93 % 0 lf 1017,8 hPa 0,0 l/m 0 min 0 min 5 W/m 6,8 km/h (2 Bft) 95,74 %
11.01.2018 16:38 7,9 C 7,8 C 6,7 C 93 % 0 lf 1017,9 hPa 0,0 l/m 0 min 0 min 5 W/m 9,0 km/h (2 Bft) 95,74 %
11.01.2018 16:40 7,9 C 7,2 C 6,7 C 93 % 0 lf 1017,8 hPa 0,0 l/m 0 min 0 min 5 W/m 6,8 km/h (2 Bft) 95,74 %
11.01.2018 16:42 7,9 C 7,2 C 6,1 C 93 % 0 lf 1017,9 hPa 0,0 l/m 0 min 0 min 5 W/m 4,5 km/h (1 Bft) 93,48 %
11.01.2018 16:44 7,9 C 7,2 C 6,1 C 93 % 0 lf 1017,9 hPa 0,0 l/m 0 min 0 min 5 W/m 6,8 km/h (2 Bft) 93,62 %
11.01.2018 16:46 7,9 C 7,2 C 6,1 C 93 % 0 lf 1017,9 hPa 0,0 l/m 0 min 0 min 5 W/m 6,8 km/h (2 Bft) 93,62 %
11.01.2018 16:48 7,9 C 7,2 C 6,1 C 93 % 0 lf 1018,0 hPa 0,0 l/m 0 min 0 min 0 W/m 4,5 km/h (1 Bft) 91,49 %
11.01.2018 16:50 7,8 C 7,2 C 6,1 C 93 % 0 lf 1018,0 hPa 0,0 l/m 0 min 0 min 0 W/m 4,5 km/h (1 Bft) 93,10 %
11.01.2018 16:52 7,8 C 7,2 C 6,1 C 93 % 0 lf 1018,0 hPa 0,0 l/m 0 min 0 min 0 W/m 6,8 km/h (2 Bft) 91,67 %
11.01.2018 16:54 7,8 C 7,2 C 6,1 C 93 % 0 lf 1018,0 hPa 0,0 l/m 0 min 0 min 0 W/m 6,8 km/h (2 Bft) 89,13 %
11.01.2018 16:56 7,8 C 7,2 C 6,1 C 93 % 0 lf 1018,0 hPa 0,0 l/m 0 min 0 min 0 W/m 4,5 km/h (1 Bft) 91,49 %
11.01.2018 16:58 7,8 C 7,2 C 6,1 C 93 % 0 lf 1018,0 hPa 0,0 l/m 0 min 0 min 0 W/m 4,5 km/h (1 Bft) 93,62 %
11.01.2018 17:00 7,8 C 7,2 C 6,1 C 93 % 0 lf 1018,0 hPa 0,0 l/m 0 min 0 min 0 W/m 4,5 km/h (1 Bft) 91,49 %
11.01.2018 17:02 7,8 C 7,2 C 6,1 C 93 % 0 lf 1018,0 hPa 0,0 l/m 0 min 0 min 0 W/m 4,5 km/h (1 Bft) 91,49 %
11.01.2018 17:04 7,8 C 7,2 C 5,6 C 93 % 0 lf 1018,2 hPa 0,0 l/m 0 min 0 min 0 W/m 2,3 km/h (1 Bft) 93,62 %
11.01.2018 17:06 7,7 C 7,2 C 5,6 C 93 % 0 lf 1018,2 hPa 0,0 l/m 0 min 0 min 0 W/m 0,0 km/h (0 Bft) 93,48 %
11.01.2018 17:08 7,7 C 7,2 C 5,6 C 93 % 0 lf 1018,2 hPa 0,0 l/m 0 min 0 min 0 W/m 0,0 km/h (0 Bft) 93,62 %
11.01.2018 17:10 7,7 C 7,2 C 5,6 C 94 % 0 lf 1018,2 hPa 0,0 l/m 0 min 0 min 0 W/m 0,0 km/h (0 Bft) 89,36 %
11.01.2018 17:12 7,7 C 7,2 C 5,6 C 94 % 0 lf 1018,2 hPa 0,0 l/m 0 min 0 min 0 W/m 0,0 km/h (0 Bft) 89,36 %
11.01.2018 17:14 7,7 C 7,2 C 5,6 C 94 % 0 lf 1018,2 hPa 0,0 l/m 0 min 0 min 0 W/m 0,0 km/h (0 Bft) 94,00 %
11.01.2018 17:16 7,7 C 7,2 C 5,6 C 94 % 0 lf 1018,2 hPa 0,0 l/m 0 min 0 min 0 W/m 0,0 km/h (0 Bft) 93,48 %
11.01.2018 17:18 7,7 C 7,2 C 6,1 C 94 % 0 lf 1018,2 hPa 0,0 l/m 0 min 0 min 0 W/m 0,0 km/h (0 Bft) 97,87 %
11.01.2018 17:20 7,7 C 7,2 C 6,1 C 94 % 0 lf 1018,2 hPa 0,0 l/m 0 min 0 min 0 W/m 0,0 km/h (0 Bft) 97,87 %
11.01.2018 17:22 7,7 C 7,2 C 6,1 C 94 % 0 lf 1018,2 hPa 0,0 l/m 0 min 0 min 0 W/m 0,0 km/h (0 Bft) 95,74 %
11.01.2018 17:24 7,6 C 7,2 C 6,1 C 94 % 0 lf 1018,3 hPa 0,0 l/m 0 min 0 min 0 W/m 4,5 km/h (1 Bft) 97,87 %
11.01.2018 17:26 7,6 C 7,2 C 6,1 C 94 % 0 lf 1018,3 hPa 0,0 l/m 0 min 0 min 0 W/m 6,8 km/h (2 Bft) 95,74 %
11.01.2018 17:28 7,6 C 7,2 C 6,1 C 94 % 0 lf 1018,3 hPa 0,0 l/m 0 min 0 min 0 W/m 6,8 km/h (2 Bft) 95,65 %
11.01.2018 17:30 7,6 C 7,2 C 6,1 C 94 % 0 lf 1018,3 hPa 0,0 l/m 0 min 0 min 0 W/m 6,8 km/h (2 Bft) 95,74 %
11.01.2018 17:32 7,6 C 7,2 C 6,1 C 94 % 0 lf 1018,3 hPa 0,0 l/m 0 min 0 min 0 W/m 4,5 km/h (1 Bft) 97,87 %
11.01.2018 17:34 7,6 C 6,7 C 5,6 C 94 % 0 lf 1018,3 hPa 0,0 l/m 0 min 0 min 0 W/m 4,5 km/h (1 Bft) 97,87 %
11.01.2018 17:36 7,6 C 6,7 C 5,6 C 94 % 0 lf 1018,3 hPa 0,0 l/m 0 min 0 min 0 W/m 6,8 km/h (2 Bft) 97,87 %
11.01.2018 17:38 7,5 C 6,7 C 5,6 C 94 % 0 lf 1018,4 hPa 0,0 l/m 0 min 0 min 0 W/m 4,5 km/h (1 Bft) 97,87 %
11.01.2018 17:40 7,5 C 6,7 C 5,6 C 94 % 0 lf 1018,4 hPa 0,0 l/m 0 min 0 min 0 W/m 6,8 km/h (2 Bft) 97,83 %
11.01.2018 17:42 7,5 C 6,7 C 5,6 C 94 % 0 lf 1018,4 hPa 0,0 l/m 0 min 0 min 0 W/m 6,8 km/h (2 Bft) 97,87 %
11.01.2018 17:44 7,5 C 6,7 C 5,6 C 94 % 0 lf 1018,5 hPa 0,0 l/m 0 min 0 min 0 W/m 6,8 km/h (2 Bft) 95,74 %
11.01.2018 17:46 7,4 C 6,7 C 5,6 C 94 % 0 lf 1018,4 hPa 0,0 l/m 0 min 0 min 0 W/m 6,8 km/h (2 Bft) 100,00 %
11.01.2018 17:48 7,4 C 6,7 C 5,6 C 94 % 0 lf 1018,4 hPa 0,0 l/m 0 min 0 min 0 W/m 6,8 km/h (2 Bft) 100,00 %
11.01.2018 17:50 7,4 C 6,7 C 5,6 C 94 % 0 lf 1018,5 hPa 0,0 l/m 0 min 0 min 0 W/m 6,8 km/h (2 Bft) 100,00 %
11.01.2018 17:52 7,4 C 6,7 C 5,6 C 94 % 0 lf 1018,5 hPa 0,0 l/m 0 min 0 min 0 W/m 4,5 km/h (1 Bft) 100,00 %
11.01.2018 17:54 7,4 C 6,7 C 5,6 C 94 % 0 lf 1018,5 hPa 0,0 l/m 0 min 0 min 0 W/m 4,5 km/h (1 Bft) 100,00 %
11.01.2018 17:56 7,4 C 6,7 C 5,6 C 94 % 0 lf 1018,5 hPa 0,0 l/m 0 min 0 min 0 W/m 4,5 km/h (1 Bft) 95,74 %
11.01.2018 17:58 7,3 C 6,7 C 5,6 C 94 % 0 lf 1018,6 hPa 0,0 l/m 0 min 0 min 0 W/m 9,0 km/h (2 Bft) 95,74 %
11.01.2018 18:00 7,3 C 6,7 C 5,6 C 94 % 0 lf 1018,6 hPa 0,0 l/m 0 min 0 min 0 W/m 9,0 km/h (2 Bft) 97,87 %
11.01.2018 18:02 7,3 C 6,7 C 5,6 C 94 % 0 lf 1018,6 hPa 0,0 l/m 0 min 0 min 0 W/m 4,5 km/h (1 Bft) 97,83 %
11.01.2018 18:04 7,3 C 6,7 C 5,6 C 94 % 0 lf 1018,7 hPa 0,0 l/m 0 min 0 min 0 W/m 0,0 km/h (0 Bft) 95,74 %
11.01.2018 18:06 7,3 C 6,7 C 5,6 C 94 % 0 lf 1018,7 hPa 0,0 l/m 0 min 0 min 0 W/m 4,5 km/h (1 Bft) 98,00 %
11.01.2018 18:08 7,3 C 6,7 C 5,6 C 94 % 0 lf 1018,8 hPa 0,0 l/m 0 min 0 min 0 W/m 6,8 km/h (2 Bft) 95,74 %
11.01.2018 18:10 7,3 C 6,7 C 5,6 C 94 % 0 lf 1018,8 hPa 0,0 l/m 0 min 0 min 0 W/m 6,8 km/h (2 Bft) 97,87 %
11.01.2018 18:12 7,2 C 6,7 C 5,6 C 94 % 0 lf 1018,8 hPa 0,0 l/m 0 min 0 min 0 W/m 6,8 km/h (2 Bft) 97,83 %
11.01.2018 18:14 7,2 C 6,7 C 5,6 C 94 % 0 lf 1018,8 hPa 0,0 l/m 0 min 0 min 0 W/m 4,5 km/h (1 Bft) 97,87 %
11.01.2018 18:16 7,2 C 6,7 C 5,6 C 94 % 0 lf 1018,9 hPa 0,0 l/m 0 min 0 min 0 W/m 6,8 km/h (2 Bft) 97,87 %
11.01.2018 18:18 7,2 C 6,7 C 5,6 C 94 % 0 lf 1018,9 hPa 0,0 l/m 0 min 0 min 0 W/m 6,8 km/h (2 Bft) 95,74 %
11.01.2018 18:20 7,2 C 6,7 C 5,6 C 94 % 0 lf 1018,9 hPa 0,0 l/m 0 min 0 min 0 W/m 6,8 km/h (2 Bft) 93,62 %
11.01.2018 18:22 7,2 C 6,7 C 5,6 C 94 % 0 lf 1019,0 hPa 0,0 l/m 0 min 0 min 0 W/m 9,0 km/h (2 Bft) 97,87 %
11.01.2018 18:24 7,1 C 6,7 C 5,6 C 94 % 0 lf 1019,0 hPa 0,0 l/m 0 min 0 min 0 W/m 6,8 km/h (2 Bft) 95,74 %
11.01.2018 18:26 7,1 C 6,7 C 5,6 C 94 % 0 lf 1019,1 hPa 0,0 l/m 0 min 0 min 0 W/m 9,0 km/h (2 Bft) 97,83 %
11.01.2018 18:28 7,1 C 6,7 C 5,6 C 94 % 0 lf 1019,0 hPa 0,0 l/m 0 min 0 min 0 W/m 9,0 km/h (2 Bft) 95,74 %
11.01.2018 18:30 7,1 C 6,7 C 5,6 C 94 % 0 lf 1019,1 hPa 0,0 l/m 0 min 0 min 0 W/m 9,0 km/h (2 Bft) 97,87 %
11.01.2018 18:32 7,1 C 6,7 C 5,6 C 94 % 1 lf 1019,0 hPa 0,0 l/m 0 min 0 min 0 W/m 6,8 km/h (2 Bft) 95,74 %
11.01.2018 18:34 7,1 C 6,7 C 5,6 C 94 % 1 lf 1019,1 hPa 0,0 l/m 0 min 0 min 0 W/m 9,0 km/h (2 Bft) 91,49 %
11.01.2018 18:36 7,1 C 6,1 C 5,6 C 94 % 1 lf 1019,0 hPa 0,0 l/m 0 min 0 min 0 W/m 9,0 km/h (2 Bft) 91,30 %
11.01.2018 18:38 7,0 C 6,1 C 5,0 C 95 % 1 lf 1019,0 hPa 0,0 l/m 0 min 0 min 0 W/m 9,0 km/h (2 Bft) 93,62 %
11.01.2018 18:40 7,0 C 6,1 C 5,0 C 94 % 1 lf 1019,0 hPa 0,0 l/m 0 min 0 min 0 W/m 11,3 km/h (2 Bft) 95,74 %
11.01.2018 18:42 7,0 C 6,1 C 5,0 C 94 % 1 lf 1019,1 hPa 0,0 l/m 0 min 0 min 0 W/m 9,0 km/h (2 Bft) 95,74 %
11.01.2018 18:44 7,0 C 6,1 C 5,0 C 94 % 1 lf 1019,1 hPa 0,0 l/m 0 min 0 min 0 W/m 9,0 km/h (2 Bft) 95,74 %
11.01.2018 18:46 7,0 C 6,1 C 5,0 C 94 % 1 lf 1019,1 hPa 0,0 l/m 0 min 0 min 0 W/m 6,8 km/h (2 Bft) 97,87 %
11.01.2018 18:48 6,9 C 6,1 C 5,0 C 94 % 1 lf 1019,1 hPa 0,0 l/m 0 min 0 min 0 W/m 6,8 km/h (2 Bft) 97,83 %
11.01.2018 18:50 6,9 C 6,1 C 5,0 C 95 % 1 lf 1019,1 hPa 0,0 l/m 0 min 0 min 0 W/m 6,8 km/h (2 Bft) 97,87 %
11.01.2018 18:52 6,9 C 6,1 C 5,0 C 95 % 1 lf 1019,1 hPa 0,0 l/m 0 min 0 min 0 W/m 6,8 km/h (2 Bft) 93,62 %
11.01.2018 18:54 6,9 C 6,1 C 5,0 C 95 % 1 lf 1019,2 hPa 0,0 l/m 0 min 0 min 0 W/m 6,8 km/h (2 Bft) 95,74 %
11.01.2018 18:56 6,9 C 6,1 C 5,0 C 95 % 1 lf 1019,2 hPa 0,0 l/m 0 min 0 min 0 W/m 9,0 km/h (2 Bft) 97,87 %
11.01.2018 18:58 6,9 C 6,1 C 5,0 C 95 % 1 lf 1019,2 hPa 0,0 l/m 0 min 0 min 0 W/m 6,8 km/h (2 Bft) 97,87 %
11.01.2018 19:00 6,9 C 6,1 C 5,0 C 95 % 1 lf 1019,3 hPa 0,0 l/m 0 min 0 min 0 W/m 6,8 km/h (2 Bft) 95,65 %
11.01.2018 19:02 6,8 C 6,1 C 5,0 C 95 % 1 lf 1019,2 hPa 0,0 l/m 0 min 0 min 0 W/m 6,8 km/h (2 Bft) 95,74 %
11.01.2018 19:04 6,8 C 6,1 C 4,4 C 95 % 1 lf 1019,3 hPa 0,0 l/m 0 min 0 min 0 W/m 2,3 km/h (1 Bft) 95,74 %
11.01.2018 19:06 6,8 C 6,1 C 4,4 C 95 % 1 lf 1019,3 hPa 0,0 l/m 0 min 0 min 0 W/m 4,5 km/h (1 Bft) 97,87 %
11.01.2018 19:08 6,8 C 5,6 C 4,4 C 95 % 1 lf 1019,3 hPa 0,0 l/m 0 min 0 min 0 W/m 6,8 km/h (2 Bft) 95,74 %
11.01.2018 19:10 6,8 C 5,6 C 4,4 C 95 % 1 lf 1019,3 hPa 0,0 l/m 0 min 0 min 0 W/m 4,5 km/h (1 Bft) 91,49 %
11.01.2018 19:12 6,8 C 5,6 C 4,4 C 95 % 1 lf 1019,3 hPa 0,0 l/m 0 min 0 min 0 W/m 2,3 km/h (1 Bft) 95,65 %
11.01.2018 19:14 6,7 C 5,6 C 4,4 C 95 % 1 lf 1019,3 hPa 0,0 l/m 0 min 0 min 0 W/m 2,3 km/h (1 Bft) 97,87 %
11.01.2018 19:16 6,7 C 5,6 C 4,4 C 95 % 1 lf 1019,3 hPa 0,0 l/m 0 min 0 min 0 W/m 4,5 km/h (1 Bft) 97,87 %
11.01.2018 19:18 6,7 C 5,6 C 4,4 C 95 % 1 lf 1019,3 hPa 0,0 l/m 0 min 0 min 0 W/m 4,5 km/h (1 Bft) 100,00 %
11.01.2018 19:20 6,7 C 5,6 C 4,4 C 95 % 1 lf 1019,3 hPa 0,0 l/m 0 min 0 min 0 W/m 0,0 km/h (0 Bft) 95,74 %
11.01.2018 19:22 6,7 C 5,6 C 4,4 C 95 % 1 lf 1019,4 hPa 0,0 l/m 0 min 0 min 0 W/m 6,8 km/h (2 Bft) 93,62 %
11.01.2018 19:24 6,6 C 5,6 C 4,4 C 95 % 1 lf 1019,4 hPa 0,0 l/m 0 min 0 min 0 W/m 6,8 km/h (2 Bft) 97,83 %
11.01.2018 19:26 6,6 C 6,1 C 5,0 C 95 % 1 lf 1019,4 hPa 0,0 l/m 0 min 0 min 0 W/m 6,8 km/h (2 Bft) 93,62 %
11.01.2018 19:28 6,6 C 5,6 C 5,0 C 95 % 1 lf 1019,3 hPa 0,0 l/m 0 min 0 min 0 W/m 6,8 km/h (2 Bft) 97,87 %
11.01.2018 19:30 6,6 C 6,1 C 4,4 C 95 % 1 lf 1019,4 hPa 0,0 l/m 0 min 0 min 0 W/m 4,5 km/h (1 Bft) 95,74 %
11.01.2018 19:32 6,6 C 5,6 C 4,4 C 95 % 1 lf 1019,4 hPa 0,0 l/m 0 min 0 min 0 W/m 4,5 km/h (1 Bft) 97,87 %
11.01.2018 19:34 6,6 C 5,6 C 4,4 C 95 % 1 lf 1019,4 hPa 0,0 l/m 0 min 0 min 0 W/m 4,5 km/h (1 Bft) 97,87 %
11.01.2018 19:36 6,5 C 5,6 C 4,4 C 95 % 1 lf 1019,4 hPa 0,0 l/m 0 min 0 min 0 W/m 4,5 km/h (1 Bft) 97,83 %
11.01.2018 19:38 6,5 C 5,6 C 5,0 C 95 % 1 lf 1019,5 hPa 0,0 l/m 0 min 0 min 0 W/m 4,5 km/h (1 Bft) 97,87 %
11.01.2018 19:40 6,5 C 5,6 C 5,0 C 95 % 1 lf 1019,5 hPa 0,0 l/m 0 min 0 min 0 W/m 4,5 km/h (1 Bft) 97,87 %
11.01.2018 19:42 6,5 C 5,6 C 5,0 C 95 % 1 lf 1019,5 hPa 0,0 l/m 0 min 0 min 0 W/m 4,5 km/h (1 Bft) 97,87 %
11.01.2018 19:44 6,4 C 5,6 C 4,4 C 95 % 1 lf 1019,5 hPa 0,0 l/m 0 min 0 min 0 W/m 2,3 km/h (1 Bft) 95,74 %
11.01.2018 19:46 6,4 C 5,6 C 4,4 C 95 % 1 lf 1019,5 hPa 0,0 l/m 0 min 0 min 0 W/m 2,3 km/h (1 Bft) 95,65 %
11.01.2018 19:48 6,4 C 5,6 C 4,4 C 95 % 1 lf 1019,6 hPa 0,0 l/m 0 min 0 min 0 W/m 2,3 km/h (1 Bft) 93,62 %
11.01.2018 19:50 6,4 C 5,6 C 4,4 C 95 % 1 lf 1019,6 hPa 0,0 l/m 0 min 0 min 0 W/m 0,0 km/h (0 Bft) 95,74 %
11.01.2018 19:52 6,4 C 5,6 C 4,4 C 95 % 1 lf 1019,6 hPa 0,0 l/m 0 min 0 min 0 W/m 0,0 km/h (0 Bft) 100,00 %
11.01.2018 19:54 6,4 C 5,6 C 4,4 C 95 % 1 lf 1019,6 hPa 0,0 l/m 0 min 0 min 0 W/m 0,0 km/h (0 Bft) 100,00 %
11.01.2018 19:56 6,4 C 5,6 C 4,4 C 95 % 1 lf 1019,6 hPa 0,0 l/m 0 min 0 min 0 W/m 0,0 km/h (0 Bft) 100,00 %
11.01.2018 19:58 6,4 C 5,6 C 4,4 C 95 % 1 lf 1019,6 hPa 0,0 l/m 0 min 0 min 0 W/m 6,8 km/h (2 Bft) 100,00 %
11.01.2018 20:00 6,4 C 5,6 C 4,4 C 95 % 1 lf 1019,6 hPa 0,0 l/m 0 min 0 min 0 W/m 6,8 km/h (2 Bft) 95,74 %
11.01.2018 20:02 6,4 C 5,6 C 4,4 C 95 % 1 lf 1019,7 hPa 0,0 l/m 0 min 0 min 0 W/m 6,8 km/h (2 Bft) 97,87 %
11.01.2018 20:04 6,4 C 5,6 C 4,4 C 95 % 1 lf 1019,7 hPa 0,0 l/m 0 min 0 min 0 W/m 4,5 km/h (1 Bft) 97,87 %
11.01.2018 20:06 6,4 C 5,6 C 4,4 C 95 % 1 lf 1019,8 hPa 0,0 l/m 0 min 0 min 0 W/m 4,5 km/h (1 Bft) 100,00 %
11.01.2018 20:08 6,4 C 5,6 C 4,4 C 95 % 1 lf 1019,8 hPa 0,0 l/m 0 min 0 min 0 W/m 4,5 km/h (1 Bft) 100,00 %
11.01.2018 20:10 6,4 C 5,6 C 4,4 C 95 % 1 lf 1019,8 hPa 0,0 l/m 0 min 0 min 0 W/m 6,8 km/h (2 Bft) 100,00 %
11.01.2018 20:12 6,4 C 5,6 C 4,4 C 95 % 1 lf 1019,8 hPa 0,0 l/m 0 min 0 min 0 W/m 6,8 km/h (2 Bft) 100,00 %
11.01.2018 20:14 6,4 C 5,6 C 4,4 C 95 % 1 lf 1019,8 hPa 0,0 l/m 0 min 0 min 0 W/m 6,8 km/h (2 Bft) 100,00 %
11.01.2018 20:16 6,4 C 5,6 C 4,4 C 95 % 1 lf 1019,8 hPa 0,0 l/m 0 min 0 min 0 W/m 0,0 km/h (0 Bft) 100,00 %
11.01.2018 20:18 6,3 C 5,6 C 4,4 C 95 % 1 lf 1019,9 hPa 0,0 l/m 0 min 0 min 0 W/m 0,0 km/h (0 Bft) 100,00 %
11.01.2018 20:20 6,3 C 5,6 C 4,4 C 95 % 2 lf 1019,9 hPa 0,0 l/m 0 min 0 min 0 W/m 0,0 km/h (0 Bft) 97,87 %
11.01.2018 20:22 6,3 C 5,6 C 3,9 C 95 % 2 lf 1019,9 hPa 0,0 l/m 0 min 0 min 0 W/m 0,0 km/h (0 Bft) 97,83 %
11.01.2018 20:24 6,3 C 5,0 C 3,9 C 95 % 2 lf 1019,9 hPa 0,0 l/m 0 min 0 min 0 W/m 0,0 km/h (0 Bft) 100,00 %
11.01.2018 20:26 6,3 C 5,0 C 3,9 C 95 % 2 lf 1020,0 hPa 0,0 l/m 0 min 0 min 0 W/m 4,5 km/h (1 Bft) 97,87 %
11.01.2018 20:28 6,3 C 5,0 C 3,3 C 95 % 2 lf 1020,0 hPa 0,0 l/m 0 min 0 min 0 W/m 6,8 km/h (2 Bft) 100,00 %
11.01.2018 20:30 6,2 C 5,0 C 3,3 C 95 % 2 lf 1020,0 hPa 0,0 l/m 0 min 0 min 0 W/m 4,5 km/h (1 Bft) 95,74 %
11.01.2018 20:32 6,2 C 5,0 C 3,3 C 95 % 3 lf 1020,1 hPa 0,0 l/m 0 min 0 min 0 W/m 4,5 km/h (1 Bft) 95,74 %
11.01.2018 20:34 6,2 C 4,4 C 3,3 C 95 % 3 lf 1020,0 hPa 0,0 l/m 0 min 0 min 0 W/m 4,5 km/h (1 Bft) 95,65 %
11.01.2018 20:36 6,2 C 4,4 C 2,8 C 95 % 3 lf 1020,1 hPa 0,0 l/m 0 min 0 min 0 W/m 2,3 km/h (1 Bft) 97,87 %
11.01.2018 20:38 6,1 C 4,4 C 2,8 C 95 % 3 lf 1020,0 hPa 0,0 l/m 0 min 0 min 0 W/m 0,0 km/h (0 Bft) 97,87 %
11.01.2018 20:40 6,1 C 4,4 C 2,8 C 95 % 3 lf 1020,1 hPa 0,0 l/m 0 min 0 min 0 W/m 0,0 km/h (0 Bft) 97,87 %
11.01.2018 20:42 6,1 C 4,4 C 2,8 C 95 % 3 lf 1020,1 hPa 0,0 l/m 0 min 0 min 0 W/m 0,0 km/h (0 Bft) 95,74 %
11.01.2018 20:44 6,0 C 4,4 C 2,2 C 95 % 4 lf 1020,1 hPa 0,0 l/m 0 min 0 min 0 W/m 4,5 km/h (1 Bft) 95,74 %
11.01.2018 20:46 6,0 C 4,4 C 2,2 C 95 % 4 lf 1020,1 hPa 0,0 l/m 0 min 0 min 0 W/m 4,5 km/h (1 Bft) 93,88 %
11.01.2018 20:48 5,9 C 3,9 C 2,2 C 95 % 4 lf 1020,1 hPa 0,0 l/m 0 min 0 min 0 W/m 4,5 km/h (1 Bft) 95,74 %
11.01.2018 20:50 5,9 C 3,9 C 2,2 C 95 % 4 lf 1020,3 hPa 0,0 l/m 0 min 0 min 0 W/m 4,5 km/h (1 Bft) 91,49 %
11.01.2018 20:52 5,9 C 3,9 C 2,2 C 95 % 5 lf 1020,2 hPa 0,0 l/m 0 min 0 min 0 W/m 4,5 km/h (1 Bft) 93,62 %
11.01.2018 20:54 5,8 C 3,9 C 2,2 C 95 % 6 lf 1020,3 hPa 0,0 l/m 0 min 0 min 0 W/m 4,5 km/h (1 Bft) 91,67 %
11.01.2018 20:56 5,8 C 3,9 C 2,8 C 95 % 7 lf 1020,3 hPa 0,0 l/m 0 min 0 min 0 W/m 4,5 km/h (1 Bft) 93,48 %
11.01.2018 20:58 5,8 C 3,9 C 2,8 C 95 % 7 lf 1020,3 hPa 0,0 l/m 0 min 0 min 0 W/m 4,5 km/h (1 Bft) 93,62 %
11.01.2018 21:00 5,8 C 3,9 C 2,2 C 95 % 8 lf 1020,4 hPa 0,0 l/m 0 min 0 min 0 W/m 4,5 km/h (1 Bft) 91,07 %
11.01.2018 21:02 5,7 C 3,9 C 2,2 C 95 % 9 lf 1020,3 hPa 0,0 l/m 0 min 0 min 0 W/m 4,5 km/h (1 Bft) 91,49 %
11.01.2018 21:04 5,7 C 3,9 C 2,2 C 95 % 9 lf 1020,4 hPa 0,0 l/m 0 min 0 min 0 W/m 4,5 km/h (1 Bft) 93,62 %
11.01.2018 21:06 5,7 C 3,9 C 2,2 C 95 % 10 lf 1020,4 hPa 0,0 l/m 0 min 0 min 0 W/m 4,5 km/h (1 Bft) 93,62 %
11.01.2018 21:08 5,6 C 3,9 C 2,2 C 95 % 10 lf 1020,4 hPa 0,0 l/m 0 min 0 min 0 W/m 4,5 km/h (1 Bft) 95,65 %
11.01.2018 21:10 5,6 C 3,9 C 2,2 C 95 % 10 lf 1020,4 hPa 0,0 l/m 0 min 0 min 0 W/m 4,5 km/h (1 Bft) 95,74 %
11.01.2018 21:12 5,6 C 3,9 C 2,2 C 95 % 11 lf 1020,5 hPa 0,0 l/m 0 min 0 min 0 W/m 4,5 km/h (1 Bft) 91,49 %
11.01.2018 21:14 5,5 C 3,9 C 2,2 C 95 % 12 lf 1020,5 hPa 0,0 l/m 0 min 0 min 0 W/m 4,5 km/h (1 Bft) 95,74 %
11.01.2018 21:16 5,5 C 3,9 C 2,2 C 95 % 12 lf 1020,6 hPa 0,0 l/m 0 min 0 min 0 W/m 4,5 km/h (1 Bft) 95,74 %
11.01.2018 21:18 5,4 C 3,9 C 2,2 C 95 % 12 lf 1020,6 hPa 0,0 l/m 0 min 0 min 0 W/m 4,5 km/h (1 Bft) 95,74 %
11.01.2018 21:20 5,4 C 4,4 C 2,8 C 95 % 13 lf 1020,7 hPa 0,0 l/m 0 min 0 min 0 W/m 6,8 km/h (2 Bft) 95,65 %
11.01.2018 21:22 5,4 C 4,4 C 2,8 C 95 % 13 lf 1020,7 hPa 0,0 l/m 0 min 0 min 0 W/m 6,8 km/h (2 Bft) 95,74 %
11.01.2018 21:24 5,4 C 4,4 C 2,8 C 95 % 13 lf 1020,7 hPa 0,0 l/m 0 min 0 min 0 W/m 6,8 km/h (2 Bft) 95,74 %
11.01.2018 21:26 5,3 C 4,4 C 3,3 C 95 % 13 lf 1020,7 hPa 0,0 l/m 0 min 0 min 0 W/m 6,8 km/h (2 Bft) 93,62 %
11.01.2018 21:28 5,3 C 4,4 C 3,3 C 95 % 13 lf 1020,7 hPa 0,0 l/m 0 min 0 min 0 W/m 4,5 km/h (1 Bft) 95,74 %
11.01.2018 21:30 5,3 C 4,4 C 3,3 C 95 % 13 lf 1020,7 hPa 0,0 l/m 0 min 0 min 0 W/m 4,5 km/h (1 Bft) 91,30 %
11.01.2018 21:32 5,3 C 4,4 C 3,3 C 95 % 14 lf 1020,7 hPa 0,0 l/m 0 min 0 min 0 W/m 4,5 km/h (1 Bft) 95,74 %
11.01.2018 21:34 5,3 C 5,0 C 3,9 C 95 % 14 lf 1020,7 hPa 0,0 l/m 0 min 0 min 0 W/m 4,5 km/h (1 Bft) 97,87 %
11.01.2018 21:36 5,3 C 5,0 C 3,9 C 95 % 14 lf 1020,7 hPa 0,0 l/m 0 min 0 min 0 W/m 2,3 km/h (1 Bft) 95,74 %
11.01.2018 21:38 5,2 C 5,0 C 3,9 C 95 % 13 lf 1020,7 hPa 0,0 l/m 0 min 0 min 0 W/m 2,3 km/h (1 Bft) 93,62 %
11.01.2018 21:40 5,2 C 5,0 C 3,3 C 95 % 14 lf 1020,7 hPa 0,0 l/m 0 min 0 min 0 W/m 0,0 km/h (0 Bft) 95,74 %
11.01.2018 21:42 5,2 C 4,4 C 3,3 C 95 % 14 lf 1020,7 hPa 0,0 l/m 0 min 0 min 0 W/m 0,0 km/h (0 Bft) 93,48 %
11.01.2018 21:44 5,2 C 4,4 C 3,3 C 95 % 14 lf 1020,7 hPa 0,0 l/m 0 min 0 min 0 W/m 0,0 km/h (0 Bft) 93,62 %
11.01.2018 21:46 5,2 C 4,4 C 3,3 C 95 % 14 lf 1020,7 hPa 0,0 l/m 0 min 0 min 0 W/m 0,0 km/h (0 Bft) 93,62 %
11.01.2018 21:48 5,2 C 4,4 C 2,8 C 95 % 14 lf 1020,6 hPa 0,0 l/m 0 min 0 min 0 W/m 0,0 km/h (0 Bft) 95,74 %
11.01.2018 21:50 5,2 C 4,4 C 2,8 C 95 % 15 lf 1020,7 hPa 0,0 l/m 0 min 0 min 0 W/m 0,0 km/h (0 Bft) 97,87 %
11.01.2018 21:52 5,2 C 4,4 C 2,8 C 95 % 14 lf 1020,7 hPa 0,0 l/m 0 min 0 min 0 W/m 0,0 km/h (0 Bft) 95,74 %
11.01.2018 21:54 5,2 C 4,4 C 2,8 C 95 % 15 lf 1020,7 hPa 0,0 l/m 0 min 0 min 0 W/m 0,0 km/h (0 Bft) 95,65 %
11.01.2018 21:56 5,2 C 4,4 C 2,8 C 95 % 15 lf 1020,7 hPa 0,0 l/m 0 min 0 min 0 W/m 0,0 km/h (0 Bft) 97,87 %
11.01.2018 21:58 5,2 C 3,9 C 2,2 C 95 % 15 lf 1020,7 hPa 0,0 l/m 0 min 0 min 0 W/m 0,0 km/h (0 Bft) 95,74 %
11.01.2018 22:00 5,1 C 3,9 C 2,2 C 95 % 15 lf 1020,8 hPa 0,0 l/m 0 min 0 min 0 W/m 0,0 km/h (0 Bft) 95,74 %
11.01.2018 22:02 5,1 C 3,9 C 2,2 C 95 % 15 lf 1020,7 hPa 0,0 l/m 0 min 0 min 0 W/m 0,0 km/h (0 Bft) 95,74 %
11.01.2018 22:04 5,1 C 3,9 C 2,2 C 95 % 15 lf 1020,8 hPa 0,0 l/m 0 min 0 min 0 W/m 0,0 km/h (0 Bft) 97,87 %
11.01.2018 22:06 5,1 C 3,9 C 2,2 C 95 % 15 lf 1020,8 hPa 0,0 l/m 0 min 0 min 0 W/m 0,0 km/h (0 Bft) 95,65 %
11.01.2018 22:08 5,1 C 3,9 C 1,7 C 95 % 15 lf 1020,8 hPa 0,0 l/m 0 min 0 min 0 W/m 0,0 km/h (0 Bft) 95,74 %
11.01.2018 22:10 5,1 C 3,9 C 2,2 C 95 % 15 lf 1020,9 hPa 0,0 l/m 0 min 0 min 0 W/m 0,0 km/h (0 Bft) 93,62 %
11.01.2018 22:12 5,1 C 3,9 C 2,2 C 95 % 15 lf 1020,9 hPa 0,0 l/m 0 min 0 min 0 W/m 0,0 km/h (0 Bft) 93,62 %
11.01.2018 22:14 5,0 C 3,9 C 2,2 C 95 % 15 lf 1020,9 hPa 0,0 l/m 0 min 0 min 0 W/m 0,0 km/h (0 Bft) 97,87 %
11.01.2018 22:16 5,0 C 3,9 C 2,2 C 95 % 15 lf 1020,9 hPa 0,0 l/m 0 min 0 min 0 W/m 0,0 km/h (0 Bft) 97,87 %
11.01.2018 22:18 4,9 C 3,9 C 2,2 C 95 % 15 lf 1021,0 hPa 0,0 l/m 0 min 0 min 0 W/m 0,0 km/h (0 Bft) 97,83 %
11.01.2018 22:20 4,9 C 3,9 C 2,8 C 95 % 15 lf 1021,0 hPa 0,0 l/m 0 min 0 min 0 W/m 0,0 km/h (0 Bft) 93,62 %
11.01.2018 22:22 4,9 C 3,9 C 2,8 C 95 % 15 lf 1021,0 hPa 0,0 l/m 0 min 0 min 0 W/m 0,0 km/h (0 Bft) 95,74 %
11.01.2018 22:24 4,9 C 3,9 C 2,8 C 95 % 15 lf 1021,0 hPa 0,0 l/m 0 min 0 min 0 W/m 0,0 km/h (0 Bft) 95,74 %
11.01.2018 22:26 4,9 C 3,9 C 2,8 C 95 % 15 lf 1021,0 hPa 0,0 l/m 0 min 0 min 0 W/m 0,0 km/h (0 Bft) 95,74 %
11.01.2018 22:28 4,9 C 3,9 C 2,8 C 95 % 15 lf 1021,0 hPa 0,0 l/m 0 min 0 min 0 W/m 0,0 km/h (0 Bft) 97,87 %
11.01.2018 22:30 4,9 C 3,9 C 2,8 C 95 % 15 lf 1021,0 hPa 0,0 l/m 0 min 0 min 0 W/m 0,0 km/h (0 Bft) 97,83 %
11.01.2018 22:32 4,8 C 3,9 C 2,8 C 95 % 15 lf 1021,1 hPa 0,0 l/m 0 min 0 min 0 W/m 0,0 km/h (0 Bft) 95,74 %
11.01.2018 22:34 4,8 C 3,9 C 2,8 C 95 % 15 lf 1021,1 hPa 0,0 l/m 0 min 0 min 0 W/m 0,0 km/h (0 Bft) 95,74 %
11.01.2018 22:36 4,8 C 3,9 C 2,8 C 95 % 15 lf 1021,1 hPa 0,0 l/m 0 min 0 min 0 W/m 4,5 km/h (1 Bft) 97,92 %
11.01.2018 22:38 4,8 C 3,9 C 2,8 C 95 % 15 lf 1021,2 hPa 0,0 l/m 0 min 0 min 0 W/m 4,5 km/h (1 Bft) 97,87 %
11.01.2018 22:40 4,8 C 3,9 C 2,8 C 95 % 15 lf 1021,2 hPa 0,0 l/m 0 min 0 min 0 W/m 2,3 km/h (1 Bft) 95,65 %
11.01.2018 22:42 4,8 C 3,9 C 2,8 C 95 % 15 lf 1021,2 hPa 0,0 l/m 0 min 0 min 0 W/m 2,3 km/h (1 Bft) 97,87 %
11.01.2018 22:44 4,7 C 3,9 C 2,8 C 95 % 15 lf 1021,3 hPa 0,0 l/m 0 min 0 min 0 W/m 2,3 km/h (1 Bft) 97,87 %
11.01.2018 22:46 4,7 C 3,9 C 2,2 C 95 % 15 lf 1021,3 hPa 0,0 l/m 0 min 0 min 0 W/m 0,0 km/h (0 Bft) 97,87 %
11.01.2018 22:48 4,7 C 3,9 C 2,2 C 95 % 15 lf 1021,3 hPa 0,0 l/m 0 min 0 min 0 W/m 0,0 km/h (0 Bft) 97,87 %
11.01.2018 22:50 4,7 C 3,9 C 2,2 C 95 % 15 lf 1021,3 hPa 0,0 l/m 0 min 0 min 0 W/m 0,0 km/h (0 Bft) 97,87 %
11.01.2018 22:52 4,7 C 3,9 C 2,2 C 95 % 15 lf 1021,3 hPa 0,0 l/m 0 min 0 min 0 W/m 0,0 km/h (0 Bft) 97,83 %
11.01.2018 22:54 4,7 C 3,9 C 1,7 C 95 % 15 lf 1021,3 hPa 0,0 l/m 0 min 0 min 0 W/m 0,0 km/h (0 Bft) 100,00 %
11.01.2018 22:56 4,7 C 3,3 C 1,7 C 95 % 15 lf 1021,3 hPa 0,0 l/m 0 min 0 min 0 W/m 0,0 km/h (0 Bft) 97,87 %
11.01.2018 22:58 4,7 C 3,3 C 1,7 C 95 % 15 lf 1021,4 hPa 0,0 l/m 0 min 0 min 0 W/m 0,0 km/h (0 Bft) 100,00 %
11.01.2018 23:00 4,7 C 3,3 C 1,7 C 95 % 15 lf 1021,5 hPa 0,0 l/m 0 min 0 min 0 W/m 0,0 km/h (0 Bft) 97,87 %
11.01.2018 23:02 4,6 C 3,3 C 1,7 C 95 % 15 lf 1021,5 hPa 0,0 l/m 0 min 0 min 0 W/m 0,0 km/h (0 Bft) 100,00 %
11.01.2018 23:04 4,6 C 3,3 C 1,7 C 95 % 15 lf 1021,5 hPa 0,0 l/m 0 min 0 min 0 W/m 0,0 km/h (0 Bft) 100,00 %
11.01.2018 23:06 4,6 C 3,3 C 1,7 C 95 % 15 lf 1021,5 hPa 0,0 l/m 0 min 0 min 0 W/m 4,5 km/h (1 Bft) 100,00 %
11.01.2018 23:08 4,6 C 3,3 C 1,7 C 95 % 15 lf 1021,5 hPa 0,0 l/m 0 min 0 min 0 W/m 6,8 km/h (2 Bft) 95,74 %
11.01.2018 23:10 4,6 C 3,3 C 1,7 C 95 % 15 lf 1021,5 hPa 0,0 l/m 0 min 0 min 0 W/m 4,5 km/h (1 Bft) 100,00 %
11.01.2018 23:12 4,6 C 3,3 C 2,2 C 95 % 15 lf 1021,6 hPa 0,0 l/m 0 min 0 min 0 W/m 4,5 km/h (1 Bft) 100,00 %
11.01.2018 23:14 4,5 C 3,3 C 2,2 C 95 % 15 lf 1021,6 hPa 0,0 l/m 0 min 0 min 0 W/m 4,5 km/h (1 Bft) 100,00 %
11.01.2018 23:16 4,5 C 3,3 C 2,2 C 95 % 15 lf 1021,6 hPa 0,0 l/m 0 min 0 min 0 W/m 2,3 km/h (1 Bft) 100,00 %
11.01.2018 23:18 4,5 C 3,3 C 2,2 C 95 % 15 lf 1021,6 hPa 0,0 l/m 0 min 0 min 0 W/m 2,3 km/h (1 Bft) 100,00 %
11.01.2018 23:20 4,4 C 3,3 C 2,8 C 95 % 15 lf 1021,7 hPa 0,0 l/m 0 min 0 min 0 W/m 4,5 km/h (1 Bft) 100,00 %
11.01.2018 23:22 4,4 C 3,9 C 2,8 C 95 % 15 lf 1021,6 hPa 0,0 l/m 0 min 0 min 0 W/m 4,5 km/h (1 Bft) 100,00 %
11.01.2018 23:24 4,4 C 3,9 C 2,8 C 95 % 15 lf 1021,6 hPa 0,0 l/m 0 min 0 min 0 W/m 4,5 km/h (1 Bft) 95,74 %
11.01.2018 23:26 4,4 C 3,9 C 2,8 C 95 % 15 lf 1021,5 hPa 0,0 l/m 0 min 0 min 0 W/m 2,3 km/h (1 Bft) 100,00 %
11.01.2018 23:28 4,4 C 3,9 C 2,8 C 95 % 15 lf 1021,6 hPa 0,0 l/m 0 min 0 min 0 W/m 2,3 km/h (1 Bft) 100,00 %
11.01.2018 23:30 4,4 C 3,9 C 2,8 C 95 % 15 lf 1021,7 hPa 0,0 l/m 0 min 0 min 0 W/m 2,3 km/h (1 Bft) 100,00 %
11.01.2018 23:32 4,4 C 3,9 C 2,8 C 95 % 15 lf 1021,7 hPa 0,0 l/m 0 min 0 min 0 W/m 2,3 km/h (1 Bft) 100,00 %
11.01.2018 23:34 4,4 C 3,9 C 2,8 C 95 % 15 lf 1021,7 hPa 0,0 l/m 0 min 0 min 0 W/m 0,0 km/h (0 Bft) 97,87 %
11.01.2018 23:36 4,3 C 3,9 C 2,8 C 95 % 15 lf 1021,6 hPa 0,0 l/m 0 min 0 min 0 W/m 0,0 km/h (0 Bft) 97,87 %
11.01.2018 23:38 4,3 C 3,9 C 2,8 C 95 % 15 lf 1021,7 hPa 0,0 l/m 0 min 0 min 0 W/m 0,0 km/h (0 Bft) 97,87 %
11.01.2018 23:40 4,3 C 3,9 C 2,8 C 95 % 15 lf 1021,7 hPa 0,0 l/m 0 min 0 min 0 W/m 0,0 km/h (0 Bft) 97,83 %
11.01.2018 23:42 4,3 C 3,9 C 2,8 C 95 % 15 lf 1021,7 hPa 0,0 l/m 0 min 0 min 0 W/m 0,0 km/h (0 Bft) 100,00 %
11.01.2018 23:44 4,3 C 3,9 C 2,8 C 95 % 15 lf 1021,7 hPa 0,0 l/m 0 min 0 min 0 W/m 0,0 km/h (0 Bft) 100,00 %
11.01.2018 23:46 4,3 C 3,9 C 2,8 C 95 % 15 lf 1021,7 hPa 0,0 l/m 0 min 0 min 0 W/m 0,0 km/h (0 Bft) 100,00 %
11.01.2018 23:48 4,3 C 3,9 C 2,8 C 95 % 15 lf 1021,7 hPa 0,0 l/m 0 min 0 min 0 W/m 0,0 km/h (0 Bft) 97,87 %
11.01.2018 23:50 4,3 C 3,9 C 2,8 C 95 % 15 lf 1021,7 hPa 0,0 l/m 0 min 0 min 0 W/m 0,0 km/h (0 Bft) 95,65 %
11.01.2018 23:52 4,3 C 3,9 C 2,8 C 95 % 15 lf 1021,7 hPa 0,0 l/m 0 min 0 min 0 W/m 0,0 km/h (0 Bft) 95,74 %
11.01.2018 23:54 4,3 C 3,9 C 2,8 C 95 % 15 lf 1021,7 hPa 0,0 l/m 0 min 0 min 0 W/m 0,0 km/h (0 Bft) 97,87 %
11.01.2018 23:56 4,3 C 3,9 C 2,8 C 95 % 15 lf 1021,7 hPa 0,0 l/m 0 min 0 min 0 W/m 6,8 km/h (2 Bft) 97,87 %
11.01.2018 23:58 4,3 C 3,9 C 2,8 C 95 % 15 lf 1021,7 hPa 0,0 l/m 0 min 0 min 0 W/m 6,8 km/h (2 Bft) 91,49 %
_ Min-Zeit 23:36 22:56 22:08 00:00 11:18 00:00 - - - - 02:00 07:06
Minimum _ 4,3 C 3,3 C 1,7 C 92 % 0 lf 1009,7 hPa - - - - 0,0 km/h (0 Bft) 87,23 %
_ Max-Zeit 14:22 13:52 13:58 09:24 00:00 23:20 00:46 12:50 00:08 14:00 15:32 00:22
Maximum _ 8,7 C 18,9 C 7,8 C 98 % 15 lf 1021,7 hPa 0,2 l/m 2 min 4 min 269 W/m 15,8 km/h
N (3 Bft)
100,00 %
Durchschnitt _ 6,3 C 6,4 C 4,7 C 96 % 9 lf 1015,3 hPa #0,4 l/m #1:04 h #1:34 h 77 W/m 3,8 km/h (1 Bft) 96,54 %
© 2018 W. Hausmann